Time,TemperatureF,DewpointF,PressureIn,WindDirection,WindDirectionDegrees,WindSpeedMPH,WindSpeedGustMPH,Humidity,HourlyPrecipIn,Conditions,Clouds,dailyrainin,SoftwareType,DateUTC
2013-02-10 00:00:00,24.9,15.1,30.43,NW,321,1.0,2.0,66,0.00,,,0.00,Wunderground v.1.15,2013-02-10 05:00:00,
2013-02-10 00:01:00,24.9,14.8,30.43,WNW,292,1.0,8.0,65,0.00,,,0.00,Wunderground v.1.15,2013-02-10 05:01:00,
2013-02-10 00:06:00,24.8,15.0,30.43,NW,318,1.0,8.0,66,0.00,,,0.00,Wunderground v.1.15,2013-02-10 05:06:00,
2013-02-10 00:09:00,24.7,14.9,30.43,NW,319,0.0,8.0,66,0.00,,,0.00,Wunderground v.1.15,2013-02-10 05:09:00,
2013-02-10 00:11:00,24.7,14.9,30.43,NW,315,0.0,0.0,66,0.00,,,0.00,Wunderground v.1.15,2013-02-10 05:11:00,
2013-02-10 00:15:00,24.6,14.9,30.43,NW,306,0.0,0.0,66,0.00,,,0.00,Wunderground v.1.15,2013-02-10 05:15:00,
2013-02-10 00:19:00,24.5,14.8,30.43,West,267,0.0,0.0,66,0.00,,,0.00,Wunderground v.1.15,2013-02-10 05:19:00,
2013-02-10 00:20:00,24.5,14.8,30.43,West,267,0.0,0.0,66,0.00,,,0.00,Wunderground v.1.15,2013-02-10 05:20:00,
2013-02-10 00:23:00,24.5,14.8,30.43,West,267,0.0,0.0,66,0.00,,,0.00,Wunderground v.1.15,2013-02-10 05:23:00,
2013-02-10 00:24:00,24.5,14.8,30.43,West,267,0.0,0.0,66,0.00,,,0.00,Wunderground v.1.15,2013-02-10 05:24:00,
2013-02-10 00:25:00,24.5,14.8,30.43,West,271,0.0,0.0,66,0.00,,,0.00,Wunderground v.1.15,2013-02-10 05:25:00,
2013-02-10 00:28:00,24.4,14.7,30.43,West,271,0.0,0.0,66,0.00,,,0.00,Wunderground v.1.15,2013-02-10 05:28:00,
2013-02-10 00:29:00,24.4,14.7,30.43,West,271,0.0,0.0,66,0.00,,,0.00,Wunderground v.1.15,2013-02-10 05:29:00,
2013-02-10 00:30:00,24.4,14.7,30.43,West,271,0.0,0.0,66,0.00,,,0.00,Wunderground v.1.15,2013-02-10 05:30:00,
2013-02-10 00:32:00,24.4,14.7,30.43,West,271,0.0,6.0,66,0.00,,,0.00,Wunderground v.1.15,2013-02-10 05:32:00,
2013-02-10 00:36:00,24.4,14.7,30.43,West,271,0.0,6.0,66,0.00,,,0.00,Wunderground v.1.15,2013-02-10 05:36:00,
2013-02-10 00:37:00,24.4,14.7,30.43,West,271,0.0,6.0,66,0.00,,,0.00,Wunderground v.1.15,2013-02-10 05:37:00,
2013-02-10 00:38:00,24.4,14.7,30.44,West,271,0.0,6.0,66,0.00,,,0.00,Wunderground v.1.15,2013-02-10 05:38:00,
2013-02-10 00:41:00,24.3,14.6,30.44,West,271,0.0,0.0,66,0.00,,,0.00,Wunderground v.1.15,2013-02-10 05:41:00,
2013-02-10 00:42:00,24.2,14.5,30.44,West,271,0.0,0.0,66,0.00,,,0.00,Wunderground v.1.15,2013-02-10 05:42:00,
2013-02-10 00:43:00,24.2,14.5,30.43,West,271,0.0,0.0,66,0.00,,,0.00,Wunderground v.1.15,2013-02-10 05:43:00,
2013-02-10 00:48:00,24.0,14.3,30.43,West,271,0.0,0.0,66,0.00,,,0.00,Wunderground v.1.15,2013-02-10 05:48:00,
2013-02-10 00:50:00,23.9,14.2,30.43,West,273,0.0,0.0,66,0.00,,,0.00,Wunderground v.1.15,2013-02-10 05:50:00,
2013-02-10 00:52:00,23.9,14.2,30.43,West,272,0.0,0.0,66,0.00,,,0.00,Wunderground v.1.15,2013-02-10 05:52:00,
2013-02-10 00:54:00,23.9,14.2,30.43,West,272,0.0,0.0,66,0.00,,,0.00,Wunderground v.1.15,2013-02-10 05:54:00,
2013-02-10 00:55:00,23.9,14.2,30.43,West,273,0.0,0.0,66,0.00,,,0.00,Wunderground v.1.15,2013-02-10 05:55:00,
2013-02-10 00:58:00,23.9,14.5,30.43,West,275,0.0,0.0,67,0.00,,,0.00,Wunderground v.1.15,2013-02-10 05:58:00,
2013-02-10 01:00:00,24.0,14.6,30.43,WNW,284,0.0,0.0,67,0.00,,,0.00,Wunderground v.1.15,2013-02-10 06:00:00,
2013-02-10 01:03:00,24.0,14.3,30.43,WNW,285,0.0,5.0,66,0.00,,,0.00,Wunderground v.1.15,2013-02-10 06:03:00,
2013-02-10 01:06:00,23.9,14.2,30.43,WNW,284,0.0,5.0,66,0.00,,,0.00,Wunderground v.1.15,2013-02-10 06:06:00,
2013-02-10 01:07:00,23.9,14.2,30.43,WNW,285,0.0,5.0,66,0.00,,,0.00,Wunderground v.1.15,2013-02-10 06:07:00,
2013-02-10 01:12:00,23.7,14.3,30.43,WNW,285,0.0,0.0,67,0.00,,,0.00,Wunderground v.1.15,2013-02-10 06:12:00,
2013-02-10 01:13:00,23.6,14.2,30.43,WNW,285,0.0,0.0,67,0.00,,,0.00,Wunderground v.1.15,2013-02-10 06:13:00,
2013-02-10 01:15:00,23.5,14.1,30.43,WNW,285,0.0,0.0,67,0.00,,,0.00,Wunderground v.1.15,2013-02-10 06:15:00,
2013-02-10 01:17:00,23.4,14.0,30.43,WNW,285,0.0,0.0,67,0.00,,,0.00,Wunderground v.1.15,2013-02-10 06:17:00,
2013-02-10 01:20:00,23.3,14.0,30.44,WNW,285,0.0,0.0,67,0.00,,,0.00,Wunderground v.1.15,2013-02-10 06:20:00,
2013-02-10 01:21:00,23.3,14.0,30.44,WNW,284,0.0,0.0,67,0.00,,,0.00,Wunderground v.1.15,2013-02-10 06:21:00,
2013-02-10 01:26:00,23.3,14.0,30.44,WNW,285,0.0,0.0,67,0.00,,,0.00,Wunderground v.1.15,2013-02-10 06:26:00,
2013-02-10 01:27:00,23.3,14.0,30.44,WNW,285,0.0,0.0,67,0.00,,,0.00,Wunderground v.1.15,2013-02-10 06:27:00,
2013-02-10 01:29:00,23.3,14.0,30.44,WNW,285,0.0,0.0,67,0.00,,,0.00,Wunderground v.1.15,2013-02-10 06:29:00,
2013-02-10 01:33:00,23.0,14.0,30.44,WNW,284,0.0,1.0,68,0.00,,,0.00,Wunderground v.1.15,2013-02-10 06:33:00,
2013-02-10 01:34:00,22.9,13.9,30.44,WNW,284,0.0,1.0,68,0.00,,,0.00,Wunderground v.1.15,2013-02-10 06:34:00,
2013-02-10 01:35:00,22.8,13.8,30.44,WNW,285,0.0,1.0,68,0.00,,,0.00,Wunderground v.1.15,2013-02-10 06:35:00,
2013-02-10 01:39:00,22.7,14.1,30.44,WNW,285,0.0,1.0,69,0.00,,,0.00,Wunderground v.1.15,2013-02-10 06:39:00,
2013-02-10 01:40:00,22.7,14.1,30.44,WNW,285,0.0,0.0,69,0.00,,,0.00,Wunderground v.1.15,2013-02-10 06:40:00,
2013-02-10 01:42:00,22.7,14.1,30.44,WNW,285,0.0,0.0,69,0.00,,,0.00,Wunderground v.1.15,2013-02-10 06:42:00,
2013-02-10 01:46:00,22.6,14.0,30.44,WNW,285,0.0,0.0,69,0.00,,,0.00,Wunderground v.1.15,2013-02-10 06:46:00,
2013-02-10 01:47:00,22.6,14.0,30.44,WNW,285,0.0,0.0,69,0.00,,,0.00,Wunderground v.1.15,2013-02-10 06:47:00,
2013-02-10 01:48:00,22.6,14.0,30.44,WNW,284,0.0,0.0,69,0.00,,,0.00,Wunderground v.1.15,2013-02-10 06:48:00,
2013-02-10 01:51:00,22.5,13.9,30.44,WNW,284,0.0,0.0,69,0.00,,,0.00,Wunderground v.1.15,2013-02-10 06:51:00,
2013-02-10 01:52:00,22.6,14.0,30.44,WNW,285,0.0,0.0,69,0.00,,,0.00,Wunderground v.1.15,2013-02-10 06:52:00,
2013-02-10 01:53:00,22.6,14.0,30.44,WNW,285,0.0,0.0,69,0.00,,,0.00,Wunderground v.1.15,2013-02-10 06:53:00,
2013-02-10 01:54:00,22.6,14.0,30.44,WNW,285,0.0,0.0,69,0.00,,,0.00,Wunderground v.1.15,2013-02-10 06:54:00,
2013-02-10 01:56:00,22.6,14.3,30.44,WNW,284,0.0,0.0,70,0.00,,,0.00,Wunderground v.1.15,2013-02-10 06:56:00,
2013-02-10 01:58:00,22.7,14.1,30.44,WNW,290,0.0,0.0,69,0.00,,,0.00,Wunderground v.1.15,2013-02-10 06:58:00,
2013-02-10 02:01:00,22.9,14.2,30.44,WNW,290,0.0,0.0,69,0.00,,,0.00,Wunderground v.1.15,2013-02-10 07:01:00,
2013-02-10 02:03:00,23.0,14.3,30.45,WNW,290,0.0,0.0,69,0.00,,,0.00,Wunderground v.1.15,2013-02-10 07:03:00,
2013-02-10 02:06:00,23.0,14.3,30.45,WNW,290,0.0,0.0,69,0.00,,,0.00,Wunderground v.1.15,2013-02-10 07:06:00,
2013-02-10 02:10:00,23.0,14.3,30.44,WNW,290,0.0,0.0,69,0.00,,,0.00,Wunderground v.1.15,2013-02-10 07:10:00,
2013-02-10 02:11:00,23.0,14.3,30.44,WNW,290,0.0,0.0,69,0.00,,,0.00,Wunderground v.1.15,2013-02-10 07:11:00,
2013-02-10 02:13:00,23.0,14.3,30.45,WNW,290,0.0,0.0,69,0.00,,,0.00,Wunderground v.1.15,2013-02-10 07:13:00,
2013-02-10 02:14:00,22.9,14.2,30.45,WNW,290,0.0,0.0,69,0.00,,,0.00,Wunderground v.1.15,2013-02-10 07:14:00,
2013-02-10 02:16:00,22.9,14.2,30.45,WNW,290,0.0,0.0,69,0.00,,,0.00,Wunderground v.1.15,2013-02-10 07:16:00,
2013-02-10 02:18:00,22.8,14.1,30.44,WNW,290,0.0,0.0,69,0.00,,,0.00,Wunderground v.1.15,2013-02-10 07:18:00,
2013-02-10 02:20:00,22.8,14.1,30.44,WNW,290,0.0,0.0,69,0.00,,,0.00,Wunderground v.1.15,2013-02-10 07:20:00,
2013-02-10 02:21:00,22.8,14.1,30.44,WNW,290,0.0,0.0,69,0.00,,,0.00,Wunderground v.1.15,2013-02-10 07:21:00,
2013-02-10 02:24:00,22.9,14.2,30.44,WNW,290,0.0,0.0,69,0.00,,,0.00,Wunderground v.1.15,2013-02-10 07:24:00,
2013-02-10 02:25:00,22.9,14.2,30.44,WNW,290,0.0,0.0,69,0.00,,,0.00,Wunderground v.1.15,2013-02-10 07:25:00,
2013-02-10 02:30:00,22.7,14.4,30.45,WNW,290,0.0,0.0,70,0.00,,,0.00,Wunderground v.1.15,2013-02-10 07:30:00,
2013-02-10 02:31:00,22.7,14.4,30.45,WNW,290,0.0,2.0,70,0.00,,,0.00,Wunderground v.1.15,2013-02-10 07:31:00,
2013-02-10 02:32:00,22.7,14.4,30.45,WNW,290,0.0,2.0,70,0.00,,,0.00,Wunderground v.1.15,2013-02-10 07:32:00,
2013-02-10 02:37:00,22.7,14.4,30.44,WNW,290,0.0,2.0,70,0.00,,,0.00,Wunderground v.1.15,2013-02-10 07:37:00,
2013-02-10 02:38:00,22.7,14.4,30.44,WNW,290,0.0,2.0,70,0.00,,,0.00,Wunderground v.1.15,2013-02-10 07:38:00,
2013-02-10 02:39:00,22.7,14.4,30.44,WNW,290,0.0,2.0,70,0.00,,,0.00,Wunderground v.1.15,2013-02-10 07:39:00,
2013-02-10 02:43:00,22.6,14.3,30.44,WNW,291,0.0,0.0,70,0.00,,,0.00,Wunderground v.1.15,2013-02-10 07:43:00,
2013-02-10 02:44:00,22.6,14.3,30.44,WNW,291,0.0,0.0,70,0.00,,,0.00,Wunderground v.1.15,2013-02-10 07:44:00,
2013-02-10 02:46:00,22.5,14.2,30.44,WNW,291,0.0,0.0,70,0.00,,,0.00,Wunderground v.1.15,2013-02-10 07:46:00,
2013-02-10 02:49:00,22.6,14.3,30.43,WNW,300,0.0,1.0,70,0.00,,,0.00,Wunderground v.1.15,2013-02-10 07:49:00,
2013-02-10 02:50:00,22.6,14.3,30.43,NW,304,0.0,0.0,70,0.00,,,0.00,Wunderground v.1.15,2013-02-10 07:50:00,
2013-02-10 02:51:00,22.6,14.3,30.43,NW,304,0.0,0.0,70,0.00,,,0.00,Wunderground v.1.15,2013-02-10 07:51:00,
2013-02-10 02:53:00,22.6,14.6,30.43,NW,304,0.0,0.0,71,0.00,,,0.00,Wunderground v.1.15,2013-02-10 07:53:00,
2013-02-10 02:55:00,22.6,14.6,30.43,NNW,336,0.0,0.0,71,0.00,,,0.00,Wunderground v.1.15,2013-02-10 07:55:00,
2013-02-10 02:57:00,22.5,14.5,30.43,NNW,336,0.0,0.0,71,0.00,,,0.00,Wunderground v.1.15,2013-02-10 07:57:00,
2013-02-10 02:59:00,22.5,14.5,30.43,NNW,336,0.0,0.0,71,0.00,,,0.00,Wunderground v.1.15,2013-02-10 07:59:00,
2013-02-10 03:03:00,22.6,14.3,30.43,NNW,336,0.0,0.0,70,0.00,,,0.00,Wunderground v.1.15,2013-02-10 08:03:00,
2013-02-10 03:04:00,22.6,14.3,30.43,NNW,336,0.0,0.0,70,0.00,,,0.00,Wunderground v.1.15,2013-02-10 08:04:00,
2013-02-10 03:07:00,22.7,14.4,30.43,NNW,336,0.0,0.0,70,0.00,,,0.00,Wunderground v.1.15,2013-02-10 08:07:00,
2013-02-10 03:08:00,22.8,14.1,30.43,NNW,336,0.0,0.0,69,0.00,,,0.00,Wunderground v.1.15,2013-02-10 08:08:00,
2013-02-10 03:12:00,22.9,14.2,30.43,NNW,336,0.0,0.0,69,0.00,,,0.00,Wunderground v.1.15,2013-02-10 08:12:00,
2013-02-10 03:13:00,23.0,14.0,30.43,NNW,336,0.0,0.0,68,0.00,,,0.00,Wunderground v.1.15,2013-02-10 08:13:00,
2013-02-10 03:14:00,23.0,14.0,30.43,NNW,336,0.0,0.0,68,0.00,,,0.00,Wunderground v.1.15,2013-02-10 08:14:00,
2013-02-10 03:19:00,23.3,14.3,30.42,NNW,337,0.0,0.0,68,0.00,,,0.00,Wunderground v.1.15,2013-02-10 08:19:00,
2013-02-10 03:20:00,23.3,14.0,30.42,NNW,337,0.0,0.0,67,0.00,,,0.00,Wunderground v.1.15,2013-02-10 08:20:00,
2013-02-10 03:22:00,23.3,14.0,30.42,NNW,337,0.0,0.0,67,0.00,,,0.00,Wunderground v.1.15,2013-02-10 08:22:00,
2013-02-10 03:27:00,23.3,14.0,30.42,NNW,338,0.0,0.0,67,0.00,,,0.00,Wunderground v.1.15,2013-02-10 08:27:00,
2013-02-10 03:29:00,23.3,14.0,30.42,NNW,338,0.0,0.0,67,0.00,,,0.00,Wunderground v.1.15,2013-02-10 08:29:00,
2013-02-10 03:30:00,23.3,14.0,30.42,NNW,337,0.0,0.0,67,0.00,,,0.00,Wunderground v.1.15,2013-02-10 08:30:00,
2013-02-10 03:32:00,23.3,14.0,30.42,NW,325,0.0,1.0,67,0.00,,,0.00,Wunderground v.1.15,2013-02-10 08:32:00,
2013-02-10 03:34:00,23.1,13.8,30.42,NNW,327,0.0,1.0,67,0.00,,,0.00,Wunderground v.1.15,2013-02-10 08:34:00,
2013-02-10 03:38:00,22.7,13.7,30.42,NNW,327,0.0,1.0,68,0.00,,,0.00,Wunderground v.1.15,2013-02-10 08:38:00,
2013-02-10 03:39:00,22.7,13.7,30.42,NNW,327,0.0,1.0,68,0.00,,,0.00,Wunderground v.1.15,2013-02-10 08:39:00,
2013-02-10 03:40:00,22.7,13.7,30.42,NNW,327,0.0,0.0,68,0.00,,,0.00,Wunderground v.1.15,2013-02-10 08:40:00,
2013-02-10 03:45:00,22.6,13.3,30.42,NNW,327,0.0,0.0,67,0.00,,,0.00,Wunderground v.1.15,2013-02-10 08:45:00,
2013-02-10 03:46:00,22.6,13.3,30.42,NNW,327,0.0,0.0,67,0.00,,,0.00,Wunderground v.1.15,2013-02-10 08:46:00,
2013-02-10 03:47:00,22.5,13.2,30.42,NNW,327,0.0,0.0,67,0.00,,,0.00,Wunderground v.1.15,2013-02-10 08:47:00,
2013-02-10 03:50:00,22.5,12.8,30.42,NNW,327,0.0,0.0,66,0.00,,,0.00,Wunderground v.1.15,2013-02-10 08:50:00,
2013-02-10 03:53:00,22.6,12.6,30.43,NNW,327,0.0,0.0,65,0.00,,,0.00,Wunderground v.1.15,2013-02-10 08:53:00,
2013-02-10 03:54:00,22.5,12.5,30.43,NNW,327,0.0,0.0,65,0.00,,,0.00,Wunderground v.1.15,2013-02-10 08:54:00,
2013-02-10 03:55:00,22.6,12.2,30.43,NNW,327,0.0,0.0,64,0.00,,,0.00,Wunderground v.1.15,2013-02-10 08:55:00,
2013-02-10 03:57:00,22.8,12.1,30.43,NNW,327,0.0,0.0,63,0.00,,,0.00,Wunderground v.1.15,2013-02-10 08:57:00,
2013-02-10 04:01:00,23.0,11.5,30.43,NNW,327,0.0,1.0,61,0.00,,,0.00,Wunderground v.1.15,2013-02-10 09:01:00,
2013-02-10 04:03:00,23.0,11.5,30.43,NNW,327,0.0,1.0,61,0.00,,,0.00,Wunderground v.1.15,2013-02-10 09:03:00,
2013-02-10 04:06:00,23.0,11.2,30.43,NNW,327,0.0,1.0,60,0.00,,,0.00,Wunderground v.1.15,2013-02-10 09:06:00,
2013-02-10 04:07:00,23.0,11.2,30.43,NNW,327,0.0,1.0,60,0.00,,,0.00,Wunderground v.1.15,2013-02-10 09:07:00,
2013-02-10 04:09:00,22.8,11.0,30.43,NNW,328,0.0,1.0,60,0.00,,,0.00,Wunderground v.1.15,2013-02-10 09:09:00,
2013-02-10 04:10:00,22.8,11.0,30.43,NNW,328,0.0,0.0,60,0.00,,,0.00,Wunderground v.1.15,2013-02-10 09:10:00,
2013-02-10 04:14:00,22.9,10.7,30.44,NNW,328,0.0,0.0,59,0.00,,,0.00,Wunderground v.1.15,2013-02-10 09:14:00,
2013-02-10 04:15:00,22.8,10.6,30.44,NNW,328,0.0,0.0,59,0.00,,,0.00,Wunderground v.1.15,2013-02-10 09:15:00,
2013-02-10 04:19:00,22.8,10.6,30.44,NNW,327,0.0,0.0,59,0.00,,,0.00,Wunderground v.1.15,2013-02-10 09:19:00,
2013-02-10 04:20:00,22.8,10.6,30.44,NNW,328,0.0,0.0,59,0.00,,,0.00,Wunderground v.1.15,2013-02-10 09:20:00,
2013-02-10 04:21:00,22.9,10.7,30.44,NNW,327,0.0,0.0,59,0.00,,,0.00,Wunderground v.1.15,2013-02-10 09:21:00,
2013-02-10 04:26:00,22.8,11.3,30.44,NNW,327,0.0,0.0,61,0.00,,,0.00,Wunderground v.1.15,2013-02-10 09:26:00,
2013-02-10 04:29:00,22.8,11.3,30.44,NNW,327,0.0,0.0,61,0.00,,,0.00,Wunderground v.1.15,2013-02-10 09:29:00,
2013-02-10 04:31:00,22.9,11.4,30.44,NNW,327,0.0,2.0,61,0.00,,,0.00,Wunderground v.1.15,2013-02-10 09:31:00,
2013-02-10 04:33:00,22.7,11.6,30.44,NNW,328,0.0,2.0,62,0.00,,,0.00,Wunderground v.1.15,2013-02-10 09:33:00,
2013-02-10 04:37:00,22.6,11.5,30.44,NNW,328,0.0,2.0,62,0.00,,,0.00,Wunderground v.1.15,2013-02-10 09:37:00,
2013-02-10 04:39:00,22.5,11.8,30.44,NNW,328,0.0,2.0,63,0.00,,,0.00,Wunderground v.1.15,2013-02-10 09:39:00,
2013-02-10 04:42:00,22.5,11.8,30.44,NNW,328,0.0,0.0,63,0.00,,,0.00,Wunderground v.1.15,2013-02-10 09:42:00,
2013-02-10 04:46:00,22.5,11.8,30.44,NNW,328,0.0,0.0,63,0.00,,,0.00,Wunderground v.1.15,2013-02-10 09:46:00,
2013-02-10 04:47:00,22.4,12.1,30.44,NNW,327,0.0,0.0,64,0.00,,,0.00,Wunderground v.1.15,2013-02-10 09:47:00,
2013-02-10 04:49:00,22.3,11.6,30.44,NNW,328,0.0,0.0,63,0.00,,,0.00,Wunderground v.1.15,2013-02-10 09:49:00,
2013-02-10 04:51:00,22.3,11.6,30.44,NNW,327,0.0,0.0,63,0.00,,,0.00,Wunderground v.1.15,2013-02-10 09:51:00,
2013-02-10 04:53:00,22.2,11.9,30.44,NNW,328,0.0,0.0,64,0.00,,,0.00,Wunderground v.1.15,2013-02-10 09:53:00,
2013-02-10 04:54:00,22.1,11.8,30.44,NNW,327,0.0,0.0,64,0.00,,,0.00,Wunderground v.1.15,2013-02-10 09:54:00,
2013-02-10 04:55:00,22.0,11.7,30.44,NNW,327,0.0,0.0,64,0.00,,,0.00,Wunderground v.1.15,2013-02-10 09:55:00,
2013-02-10 05:00:00,22.2,11.9,30.44,NNW,330,0.0,0.0,64,0.00,,,0.00,Wunderground v.1.15,2013-02-10 10:00:00,
2013-02-10 05:01:00,22.2,11.9,30.44,NNW,330,0.0,0.0,64,0.00,,,0.00,Wunderground v.1.15,2013-02-10 10:01:00,
2013-02-10 05:02:00,22.1,11.8,30.44,NNW,330,0.0,0.0,64,0.00,,,0.00,Wunderground v.1.15,2013-02-10 10:02:00,
2013-02-10 05:04:00,22.1,11.8,30.44,NNW,330,0.0,0.0,64,0.00,,,0.00,Wunderground v.1.15,2013-02-10 10:04:00,
2013-02-10 05:09:00,22.1,11.4,30.44,NNW,330,0.0,0.0,63,0.00,,,0.00,Wunderground v.1.15,2013-02-10 10:09:00,
2013-02-10 05:10:00,22.1,11.8,30.44,NNW,330,0.0,0.0,64,0.00,,,0.00,Wunderground v.1.15,2013-02-10 10:10:00,
2013-02-10 05:11:00,22.0,11.7,30.44,NNW,330,0.0,0.0,64,0.00,,,0.00,Wunderground v.1.15,2013-02-10 10:11:00,
2013-02-10 05:15:00,21.9,11.2,30.44,NNW,330,0.0,0.0,63,0.00,,,0.00,Wunderground v.1.15,2013-02-10 10:15:00,
2013-02-10 05:16:00,21.8,11.1,30.44,NNW,330,0.0,0.0,63,0.00,,,0.00,Wunderground v.1.15,2013-02-10 10:16:00,
2013-02-10 05:17:00,21.8,11.1,30.44,NNW,330,0.0,0.0,63,0.00,,,0.00,Wunderground v.1.15,2013-02-10 10:17:00,
2013-02-10 05:20:00,21.8,10.8,30.44,NNW,330,0.0,0.0,62,0.00,,,0.00,Wunderground v.1.15,2013-02-10 10:20:00,
2013-02-10 05:22:00,21.8,10.8,30.44,NNW,330,0.0,0.0,62,0.00,,,0.00,Wunderground v.1.15,2013-02-10 10:22:00,
2013-02-10 05:24:00,21.7,10.7,30.44,NNW,330,0.0,0.0,62,0.00,,,0.00,Wunderground v.1.15,2013-02-10 10:24:00,
2013-02-10 05:29:00,21.5,10.1,30.43,NE,42,0.0,2.0,61,0.00,,,0.00,Wunderground v.1.15,2013-02-10 10:29:00,
2013-02-10 05:30:00,21.6,10.2,30.44,NE,49,0.0,1.0,61,0.00,,,0.00,Wunderground v.1.15,2013-02-10 10:30:00,
2013-02-10 05:31:00,21.6,10.2,30.43,NE,56,1.0,2.0,61,0.00,,,0.00,Wunderground v.1.15,2013-02-10 10:31:00,
2013-02-10 05:34:00,21.6,10.2,30.44,ENE,75,1.0,3.0,61,0.00,,,0.00,Wunderground v.1.15,2013-02-10 10:34:00,
2013-02-10 05:35:00,21.6,10.2,30.44,ENE,78,1.0,3.0,61,0.00,,,0.00,Wunderground v.1.15,2013-02-10 10:35:00,
2013-02-10 05:36:00,21.6,9.8,30.44,ENE,78,1.0,3.0,60,0.00,,,0.00,Wunderground v.1.15,2013-02-10 10:36:00,
2013-02-10 05:37:00,21.7,10.3,30.44,ENE,78,1.0,3.0,61,0.00,,,0.00,Wunderground v.1.15,2013-02-10 10:37:00,
2013-02-10 05:42:00,21.5,10.5,30.44,ESE,115,2.0,4.0,62,0.00,,,0.00,Wunderground v.1.15,2013-02-10 10:42:00,
2013-02-10 05:43:00,21.6,10.2,30.44,East,98,2.0,4.0,61,0.00,,,0.00,Wunderground v.1.15,2013-02-10 10:43:00,
2013-02-10 05:45:00,21.8,10.4,30.44,ESE,106,2.0,4.0,61,0.00,,,0.00,Wunderground v.1.15,2013-02-10 10:45:00,
2013-02-10 05:46:00,21.8,10.8,30.44,ESE,114,2.0,4.0,62,0.00,,,0.00,Wunderground v.1.15,2013-02-10 10:46:00,
2013-02-10 05:47:00,21.8,10.8,30.44,East,99,3.0,4.0,62,0.00,,,0.00,Wunderground v.1.15,2013-02-10 10:47:00,
2013-02-10 05:48:00,21.7,10.7,30.44,East,101,3.0,4.0,62,0.00,,,0.00,Wunderground v.1.15,2013-02-10 10:48:00,
2013-02-10 05:52:00,21.6,10.9,30.44,ESE,106,3.0,4.0,63,0.00,,,0.00,Wunderground v.1.15,2013-02-10 10:52:00,
2013-02-10 05:53:00,21.5,10.8,30.44,ESE,106,3.0,5.0,63,0.00,,,0.00,Wunderground v.1.15,2013-02-10 10:53:00,
2013-02-10 05:54:00,21.5,11.2,30.44,ESE,106,3.0,5.0,64,0.00,,,0.00,Wunderground v.1.15,2013-02-10 10:54:00,
2013-02-10 05:55:00,21.4,10.7,30.44,ESE,107,3.0,5.0,63,0.00,,,0.00,Wunderground v.1.15,2013-02-10 10:55:00,
2013-02-10 06:00:00,20.8,11.2,30.44,ESE,111,3.0,4.0,66,0.00,,,0.00,Wunderground v.1.15,2013-02-10 11:00:00,
2013-02-10 06:01:00,20.7,11.1,30.44,ESE,109,3.0,4.0,66,0.00,,,0.00,Wunderground v.1.15,2013-02-10 11:01:00,
2013-02-10 06:02:00,20.7,11.1,30.44,ESE,107,3.0,4.0,66,0.00,,,0.00,Wunderground v.1.15,2013-02-10 11:02:00,
2013-02-10 06:06:00,20.5,11.6,30.44,ESE,104,2.0,4.0,68,0.00,,,0.00,Wunderground v.1.15,2013-02-10 11:06:00,
2013-02-10 06:07:00,20.5,11.6,30.44,ESE,104,2.0,4.0,68,0.00,,,0.00,Wunderground v.1.15,2013-02-10 11:07:00,
2013-02-10 06:09:00,20.5,11.9,30.44,ESE,103,2.0,4.0,69,0.00,,,0.00,Wunderground v.1.15,2013-02-10 11:09:00,
2013-02-10 06:10:00,20.5,11.9,30.44,ESE,104,2.0,2.0,69,0.00,,,0.00,Wunderground v.1.15,2013-02-10 11:10:00,
2013-02-10 06:15:00,20.8,12.6,30.45,ESE,105,2.0,4.0,70,0.00,,,0.00,Wunderground v.1.15,2013-02-10 11:15:00,
2013-02-10 06:17:00,20.7,12.8,30.45,ESE,105,2.0,4.0,71,0.00,,,0.00,Wunderground v.1.15,2013-02-10 11:17:00,
2013-02-10 06:18:00,20.7,12.8,30.45,ESE,105,1.0,4.0,71,0.00,,,0.00,Wunderground v.1.15,2013-02-10 11:18:00,
2013-02-10 06:19:00,20.7,12.8,30.45,ESE,105,1.0,4.0,71,0.00,,,0.00,Wunderground v.1.15,2013-02-10 11:19:00,
2013-02-10 06:23:00,20.3,12.7,30.45,ESE,105,0.0,1.0,72,0.00,,,0.00,Wunderground v.1.15,2013-02-10 11:23:00,
2013-02-10 06:25:00,20.1,12.8,30.45,ESE,105,0.0,4.0,73,0.00,,,0.00,Wunderground v.1.15,2013-02-10 11:25:00,
2013-02-10 06:26:00,20.1,12.8,30.45,ESE,105,0.0,4.0,73,0.00,,,0.00,Wunderground v.1.15,2013-02-10 11:26:00,
2013-02-10 06:27:00,20.2,12.6,30.45,ESE,105,0.0,4.0,72,0.00,,,0.00,Wunderground v.1.15,2013-02-10 11:27:00,
2013-02-10 06:31:00,20.3,12.7,30.45,ESE,105,1.0,6.0,72,0.00,,,0.00,Wunderground v.1.15,2013-02-10 11:31:00,
2013-02-10 06:33:00,20.3,12.7,30.45,ESE,105,1.0,6.0,72,0.00,,,0.00,Wunderground v.1.15,2013-02-10 11:33:00,
2013-02-10 06:34:00,20.3,12.7,30.45,ESE,105,1.0,6.0,72,0.00,,,0.00,Wunderground v.1.15,2013-02-10 11:34:00,
2013-02-10 06:37:00,20.5,12.6,30.45,ESE,105,1.0,6.0,71,0.00,,,0.00,Wunderground v.1.15,2013-02-10 11:37:00,
2013-02-10 06:39:00,20.9,12.0,30.45,ESE,105,1.0,6.0,68,0.00,,,0.00,Wunderground v.1.15,2013-02-10 11:39:00,
2013-02-10 06:42:00,21.2,12.3,30.46,ESE,104,1.0,1.0,68,0.00,,,0.00,Wunderground v.1.15,2013-02-10 11:42:00,
2013-02-10 06:44:00,21.3,12.0,30.46,ESE,103,1.0,1.0,67,0.00,,,0.00,Wunderground v.1.15,2013-02-10 11:44:00,
2013-02-10 06:48:00,21.5,11.9,30.46,ESE,103,0.0,2.0,66,0.00,,,0.00,Wunderground v.1.15,2013-02-10 11:48:00,
2013-02-10 06:49:00,21.5,11.9,30.46,ESE,103,0.0,2.0,66,0.00,,,0.00,Wunderground v.1.15,2013-02-10 11:49:00,
2013-02-10 06:50:00,21.5,11.9,30.46,ESE,103,0.0,0.0,66,0.00,,,0.00,Wunderground v.1.15,2013-02-10 11:50:00,
2013-02-10 06:54:00,21.8,11.5,30.46,East,90,0.0,2.0,64,0.00,,,0.00,Wunderground v.1.15,2013-02-10 11:54:00,
2013-02-10 06:56:00,21.8,11.5,30.46,East,91,0.0,2.0,64,0.00,,,0.00,Wunderground v.1.15,2013-02-10 11:56:00,
2013-02-10 07:01:00,21.8,11.5,30.47,East,93,1.0,5.0,64,0.00,,,0.00,Wunderground v.1.15,2013-02-10 12:01:00,
2013-02-10 07:03:00,21.8,11.5,30.47,East,93,1.0,5.0,64,0.00,,,0.00,Wunderground v.1.15,2013-02-10 12:03:00,
2013-02-10 07:05:00,21.7,11.4,30.47,East,93,1.0,5.0,64,0.00,,,0.00,Wunderground v.1.15,2013-02-10 12:05:00,
2013-02-10 07:10:00,21.5,11.5,30.47,East,93,1.0,1.0,65,0.00,,,0.00,Wunderground v.1.15,2013-02-10 12:10:00,
2013-02-10 07:11:00,21.6,11.6,30.47,East,93,1.0,1.0,65,0.00,,,0.00,Wunderground v.1.15,2013-02-10 12:11:00,
2013-02-10 07:13:00,21.6,12.0,30.47,East,92,1.0,1.0,66,0.00,,,0.00,Wunderground v.1.15,2013-02-10 12:13:00,
2013-02-10 07:15:00,21.6,12.0,30.47,East,92,1.0,1.0,66,0.00,,,0.00,Wunderground v.1.15,2013-02-10 12:15:00,
2013-02-10 07:16:00,21.5,12.2,30.48,East,94,1.0,2.0,67,0.00,,,0.00,Wunderground v.1.15,2013-02-10 12:16:00,
2013-02-10 07:20:00,21.7,12.4,30.48,East,94,0.0,0.0,67,0.00,,,0.00,Wunderground v.1.15,2013-02-10 12:20:00,
2013-02-10 07:21:00,21.8,12.5,30.48,East,94,0.0,0.0,67,0.00,,,0.00,Wunderground v.1.15,2013-02-10 12:21:00,
2013-02-10 07:24:00,21.8,12.5,30.48,East,94,0.0,0.0,67,0.00,,,0.00,Wunderground v.1.15,2013-02-10 12:24:00,
2013-02-10 07:26:00,21.8,12.5,30.48,East,94,0.0,0.0,67,0.00,,,0.00,Wunderground v.1.15,2013-02-10 12:26:00,
2013-02-10 07:27:00,21.8,12.9,30.48,East,94,0.0,0.0,68,0.00,,,0.00,Wunderground v.1.15,2013-02-10 12:27:00,
2013-02-10 07:28:00,21.8,12.5,30.48,East,94,0.0,0.0,67,0.00,,,0.00,Wunderground v.1.15,2013-02-10 12:28:00,
2013-02-10 07:30:00,21.9,13.0,30.48,East,94,0.0,0.0,68,0.00,,,0.00,Wunderground v.1.15,2013-02-10 12:30:00,
2013-02-10 07:32:00,21.9,12.6,30.48,East,94,0.0,5.0,67,0.00,,,0.00,Wunderground v.1.15,2013-02-10 12:32:00,
2013-02-10 07:34:00,22.0,12.7,30.48,East,94,0.0,5.0,67,0.00,,,0.00,Wunderground v.1.15,2013-02-10 12:34:00,
2013-02-10 07:38:00,22.1,12.8,30.48,East,94,0.0,5.0,67,0.00,,,0.00,Wunderground v.1.15,2013-02-10 12:38:00,
2013-02-10 07:40:00,22.1,12.8,30.48,East,94,0.0,0.0,67,0.00,,,0.00,Wunderground v.1.15,2013-02-10 12:40:00,
2013-02-10 07:44:00,22.3,14.6,30.49,East,94,0.0,0.0,72,0.00,,,0.00,Wunderground v.1.15,2013-02-10 12:44:00,
2013-02-10 07:45:00,22.4,14.7,30.49,East,94,0.0,0.0,72,0.00,,,0.00,Wunderground v.1.15,2013-02-10 12:45:00,
2013-02-10 07:46:00,22.4,12.8,30.49,East,94,0.0,0.0,66,0.00,,,0.00,Wunderground v.1.15,2013-02-10 12:46:00,
2013-02-10 07:50:00,22.7,12.3,30.49,East,94,0.0,0.0,64,0.00,,,0.00,Wunderground v.1.15,2013-02-10 12:50:00,
2013-02-10 07:51:00,22.8,12.4,30.49,East,94,0.0,0.0,64,0.00,,,0.00,Wunderground v.1.15,2013-02-10 12:51:00,
2013-02-10 07:54:00,23.1,12.4,30.49,East,94,0.0,0.0,63,0.00,,,0.00,Wunderground v.1.15,2013-02-10 12:54:00,
2013-02-10 07:55:00,23.1,12.0,30.49,East,94,0.0,0.0,62,0.00,,,0.00,Wunderground v.1.15,2013-02-10 12:55:00,
2013-02-10 07:58:00,23.4,12.6,30.49,East,94,0.0,0.0,63,0.00,,,0.00,Wunderground v.1.15,2013-02-10 12:58:00,
2013-02-10 08:01:00,23.3,12.6,30.49,East,94,0.0,4.0,63,0.00,,,0.00,Wunderground v.1.15,2013-02-10 13:01:00,
2013-02-10 08:02:00,23.3,12.6,30.49,East,94,0.0,4.0,63,0.00,,,0.00,Wunderground v.1.15,2013-02-10 13:02:00,
2013-02-10 08:04:00,23.3,12.2,30.49,East,94,0.0,4.0,62,0.00,,,0.00,Wunderground v.1.15,2013-02-10 13:04:00,
2013-02-10 08:05:00,23.4,12.3,30.49,East,94,0.0,4.0,62,0.00,,,0.00,Wunderground v.1.15,2013-02-10 13:05:00,
2013-02-10 08:07:00,23.4,12.6,30.49,East,94,0.0,4.0,63,0.00,,,0.00,Wunderground v.1.15,2013-02-10 13:07:00,
2013-02-10 08:09:00,23.6,12.8,30.49,East,94,0.0,4.0,63,0.00,,,0.00,Wunderground v.1.15,2013-02-10 13:09:00,
2013-02-10 08:10:00,23.6,12.8,30.49,East,94,0.0,0.0,63,0.00,,,0.00,Wunderground v.1.15,2013-02-10 13:10:00,
2013-02-10 08:11:00,23.7,13.3,30.49,East,94,0.0,0.0,64,0.00,,,0.00,Wunderground v.1.15,2013-02-10 13:11:00,
2013-02-10 08:14:00,23.9,13.1,30.49,East,94,0.0,0.0,63,0.00,,,0.00,Wunderground v.1.15,2013-02-10 13:14:00,
2013-02-10 08:17:00,24.4,13.2,30.49,East,94,0.0,2.0,62,0.00,,,0.00,Wunderground v.1.15,2013-02-10 13:17:00,
2013-02-10 08:20:00,24.9,13.3,30.48,East,94,0.0,2.0,61,0.00,,,0.00,Wunderground v.1.15,2013-02-10 13:20:00,
2013-02-10 08:22:00,25.2,13.2,30.49,East,97,0.0,2.0,60,0.00,,,0.00,Wunderground v.1.15,2013-02-10 13:22:00,
2013-02-10 08:23:00,25.4,13.4,30.48,East,96,0.0,2.0,60,0.00,,,0.00,Wunderground v.1.15,2013-02-10 13:23:00,
2013-02-10 08:25:00,25.5,13.5,30.49,East,96,0.0,2.0,60,0.00,,,0.00,Wunderground v.1.15,2013-02-10 13:25:00,
2013-02-10 08:28:00,25.6,14.0,30.48,East,96,0.0,2.0,61,0.00,,,0.00,Wunderground v.1.15,2013-02-10 13:28:00,
2013-02-10 08:29:00,25.7,14.5,30.49,SE,140,0.0,2.0,62,0.00,,,0.00,Wunderground v.1.15,2013-02-10 13:29:00,
2013-02-10 08:33:00,25.8,14.6,30.48,East,100,1.0,4.0,62,0.00,,,0.00,Wunderground v.1.15,2013-02-10 13:33:00,
2013-02-10 08:36:00,25.9,14.7,30.48,SE,126,1.0,4.0,62,0.00,,,0.00,Wunderground v.1.15,2013-02-10 13:36:00,
2013-02-10 08:38:00,26.0,14.8,30.48,ESE,103,1.0,4.0,62,0.00,,,0.00,Wunderground v.1.15,2013-02-10 13:38:00,
2013-02-10 08:39:00,26.0,14.8,30.48,SE,139,1.0,4.0,62,0.00,,,0.00,Wunderground v.1.15,2013-02-10 13:39:00,
2013-02-10 08:45:00,26.0,14.8,30.48,ESE,119,1.0,4.0,62,0.00,,,0.00,Wunderground v.1.15,2013-02-10 13:45:00,
2013-02-10 08:46:00,26.0,14.8,30.48,ESE,113,1.0,4.0,62,0.00,,,0.00,Wunderground v.1.15,2013-02-10 13:46:00,
2013-02-10 08:47:00,26.0,14.8,30.48,ESE,113,1.0,4.0,62,0.00,,,0.00,Wunderground v.1.15,2013-02-10 13:47:00,
2013-02-10 08:51:00,26.2,15.3,30.49,ESE,109,0.0,0.0,63,0.00,,,0.00,Wunderground v.1.15,2013-02-10 13:51:00,
2013-02-10 08:53:00,26.2,14.9,30.49,ESE,116,1.0,4.0,62,0.00,,,0.00,Wunderground v.1.15,2013-02-10 13:53:00,
2013-02-10 08:55:00,26.2,14.9,30.49,ESE,114,1.0,4.0,62,0.00,,,0.00,Wunderground v.1.15,2013-02-10 13:55:00,
2013-02-10 08:58:00,26.2,14.9,30.49,ESE,114,1.0,4.0,62,0.00,,,0.00,Wunderground v.1.15,2013-02-10 13:58:00,
2013-02-10 09:00:00,26.1,14.8,30.49,ESE,114,1.0,1.0,62,0.00,,,0.00,Wunderground v.1.15,2013-02-10 14:00:00,
2013-02-10 09:03:00,26.2,15.3,30.49,ESE,115,0.0,4.0,63,0.00,,,0.00,Wunderground v.1.15,2013-02-10 14:03:00,
2013-02-10 09:05:00,26.2,15.3,30.49,ESE,115,0.0,4.0,63,0.00,,,0.00,Wunderground v.1.15,2013-02-10 14:05:00,
2013-02-10 09:06:00,26.2,15.3,30.49,ESE,115,0.0,4.0,63,0.00,,,0.00,Wunderground v.1.15,2013-02-10 14:06:00,
2013-02-10 09:09:00,26.3,15.8,30.49,ESE,115,0.0,4.0,64,0.00,,,0.00,Wunderground v.1.15,2013-02-10 14:09:00,
2013-02-10 09:11:00,26.3,15.8,30.49,ESE,114,0.0,0.0,64,0.00,,,0.00,Wunderground v.1.15,2013-02-10 14:11:00,
2013-02-10 09:13:00,26.3,15.8,30.49,ESE,115,0.0,0.0,64,0.00,,,0.00,Wunderground v.1.15,2013-02-10 14:13:00,
2013-02-10 09:14:00,26.3,15.8,30.49,ESE,115,0.0,0.0,64,0.00,,,0.00,Wunderground v.1.15,2013-02-10 14:14:00,
2013-02-10 09:19:00,26.6,15.3,30.48,ESE,111,0.0,2.0,62,0.00,,,0.00,Wunderground v.1.15,2013-02-10 14:19:00,
2013-02-10 09:21:00,26.8,15.5,30.48,ESE,111,0.0,0.0,62,0.00,,,0.00,Wunderground v.1.15,2013-02-10 14:21:00,
2013-02-10 09:22:00,26.9,15.6,30.48,ESE,113,0.0,0.0,62,0.00,,,0.00,Wunderground v.1.15,2013-02-10 14:22:00,
2013-02-10 09:24:00,27.1,15.4,30.48,ESE,108,0.0,0.0,61,0.00,,,0.00,Wunderground v.1.15,2013-02-10 14:24:00,
2013-02-10 09:28:00,27.5,15.8,30.48,ESE,109,0.0,0.0,61,0.00,,,0.00,Wunderground v.1.15,2013-02-10 14:28:00,
2013-02-10 09:29:00,27.5,15.8,30.48,ESE,109,0.0,0.0,61,0.00,,,0.00,Wunderground v.1.15,2013-02-10 14:29:00,
2013-02-10 09:30:00,27.5,15.4,30.48,ESE,109,0.0,0.0,60,0.00,,,0.00,Wunderground v.1.15,2013-02-10 14:30:00,
2013-02-10 09:31:00,27.6,15.5,30.48,ESE,109,0.0,1.0,60,0.00,,,0.00,Wunderground v.1.15,2013-02-10 14:31:00,
2013-02-10 09:36:00,27.9,15.8,30.48,ESE,109,0.0,8.0,60,0.00,,,0.00,Wunderground v.1.15,2013-02-10 14:36:00,
2013-02-10 09:37:00,27.9,15.8,30.48,ESE,109,0.0,8.0,60,0.00,,,0.00,Wunderground v.1.15,2013-02-10 14:37:00,
2013-02-10 09:38:00,28.0,15.9,30.48,ESE,110,0.0,8.0,60,0.00,,,0.00,Wunderground v.1.15,2013-02-10 14:38:00,
2013-02-10 09:40:00,28.1,15.6,30.48,ESE,110,0.0,0.0,59,0.00,,,0.00,Wunderground v.1.15,2013-02-10 14:40:00,
2013-02-10 09:42:00,28.1,15.6,30.48,ESE,110,0.0,0.0,59,0.00,,,0.00,Wunderground v.1.15,2013-02-10 14:42:00,
2013-02-10 09:45:00,28.1,15.6,30.48,ESE,110,0.0,0.0,59,0.00,,,0.00,Wunderground v.1.15,2013-02-10 14:45:00,
2013-02-10 09:46:00,28.1,15.6,30.48,ESE,110,0.0,0.0,59,0.00,,,0.00,Wunderground v.1.15,2013-02-10 14:46:00,
2013-02-10 09:47:00,28.1,16.0,30.48,ESE,110,0.0,0.0,60,0.00,,,0.00,Wunderground v.1.15,2013-02-10 14:47:00,
2013-02-10 09:48:00,28.1,16.0,30.48,ESE,110,0.0,0.0,60,0.00,,,0.00,Wunderground v.1.15,2013-02-10 14:48:00,
2013-02-10 09:52:00,28.1,16.0,30.48,ESE,110,0.0,0.0,60,0.00,,,0.00,Wunderground v.1.15,2013-02-10 14:52:00,
2013-02-10 09:53:00,28.1,16.0,30.48,ESE,110,0.0,0.0,60,0.00,,,0.00,Wunderground v.1.15,2013-02-10 14:53:00,
2013-02-10 09:55:00,28.1,16.4,30.48,ESE,110,0.0,0.0,61,0.00,,,0.00,Wunderground v.1.15,2013-02-10 14:55:00,
2013-02-10 09:59:00,28.1,15.6,30.48,ESE,110,0.0,0.0,59,0.00,,,0.00,Wunderground v.1.15,2013-02-10 14:59:00,
2013-02-10 10:00:00,28.1,16.0,30.48,ESE,110,0.0,0.0,60,0.00,,,0.00,Wunderground v.1.15,2013-02-10 15:00:00,
2013-02-10 10:01:00,28.1,16.0,30.48,ESE,110,0.0,2.0,60,0.00,,,0.00,Wunderground v.1.15,2013-02-10 15:01:00,
2013-02-10 10:05:00,28.1,16.4,30.48,ESE,111,0.0,2.0,61,0.00,,,0.00,Wunderground v.1.15,2013-02-10 15:05:00,
2013-02-10 10:08:00,28.0,17.4,30.49,East,95,0.0,2.0,64,0.00,,,0.00,Wunderground v.1.15,2013-02-10 15:08:00,
2013-02-10 10:09:00,28.0,17.4,30.49,East,95,0.0,2.0,64,0.00,,,0.00,Wunderground v.1.15,2013-02-10 15:09:00,
2013-02-10 10:11:00,27.8,17.6,30.49,East,96,0.0,0.0,65,0.00,,,0.00,Wunderground v.1.15,2013-02-10 15:11:00,
2013-02-10 10:12:00,27.8,17.9,30.49,East,96,0.0,0.0,66,0.00,,,0.00,Wunderground v.1.15,2013-02-10 15:12:00,
2013-02-10 10:18:00,27.2,17.7,30.49,East,80,0.0,0.0,67,0.00,,,0.00,Wunderground v.1.15,2013-02-10 15:18:00,
2013-02-10 10:19:00,27.2,17.7,30.49,East,80,0.0,0.0,67,0.00,,,0.00,Wunderground v.1.15,2013-02-10 15:19:00,
2013-02-10 10:24:00,27.0,17.8,30.49,East,80,0.0,0.0,68,0.00,,,0.00,Wunderground v.1.15,2013-02-10 15:24:00,
2013-02-10 10:25:00,27.0,17.8,30.49,East,80,0.0,0.0,68,0.00,,,0.00,Wunderground v.1.15,2013-02-10 15:25:00,
2013-02-10 10:30:00,27.0,17.8,30.49,East,80,0.0,0.0,68,0.00,,,0.00,Wunderground v.1.15,2013-02-10 15:30:00,
2013-02-10 10:32:00,27.1,17.9,30.49,ENE,74,0.0,4.0,68,0.00,,,0.00,Wunderground v.1.15,2013-02-10 15:32:00,
2013-02-10 10:33:00,27.2,18.4,30.49,ENE,74,0.0,4.0,69,0.00,,,0.00,Wunderground v.1.15,2013-02-10 15:33:00,
2013-02-10 10:35:00,27.3,18.1,30.49,ENE,74,0.0,4.0,68,0.00,,,0.00,Wunderground v.1.15,2013-02-10 15:35:00,
2013-02-10 10:39:00,27.6,18.8,30.49,ENE,63,0.0,4.0,69,0.00,,,0.00,Wunderground v.1.15,2013-02-10 15:39:00,
2013-02-10 10:41:00,27.7,18.5,30.49,WNW,296,0.0,0.0,68,0.00,,,0.00,Wunderground v.1.15,2013-02-10 15:41:00,
2013-02-10 10:43:00,27.8,18.9,30.49,WNW,286,0.0,0.0,69,0.00,,,0.00,Wunderground v.1.15,2013-02-10 15:43:00,
2013-02-10 10:44:00,27.8,18.9,30.49,WNW,286,0.0,0.0,69,0.00,,,0.00,Wunderground v.1.15,2013-02-10 15:44:00,
2013-02-10 10:46:00,27.9,18.7,30.49,WNW,285,0.0,0.0,68,0.00,,,0.00,Wunderground v.1.15,2013-02-10 15:46:00,
2013-02-10 10:48:00,28.1,18.9,30.49,WNW,285,0.0,0.0,68,0.00,,,0.00,Wunderground v.1.15,2013-02-10 15:48:00,
2013-02-10 10:49:00,28.1,18.9,30.49,WNW,285,0.0,0.0,68,0.00,,,0.00,Wunderground v.1.15,2013-02-10 15:49:00,
2013-02-10 10:51:00,28.3,19.1,30.49,WNW,285,0.0,0.0,68,0.00,,,0.00,Wunderground v.1.15,2013-02-10 15:51:00,
2013-02-10 10:55:00,28.6,18.7,30.49,West,281,0.0,1.0,66,0.00,,,0.00,Wunderground v.1.15,2013-02-10 15:55:00,
2013-02-10 10:59:00,28.8,18.5,30.49,West,281,0.0,1.0,65,0.00,,,0.00,Wunderground v.1.15,2013-02-10 15:59:00,
2013-02-10 11:00:00,28.8,18.1,30.48,West,281,0.0,0.0,64,0.00,,,0.00,Wunderground v.1.15,2013-02-10 16:00:00,
2013-02-10 11:06:00,29.1,18.1,30.48,West,281,0.0,1.0,63,0.00,,,0.00,Wunderground v.1.15,2013-02-10 16:06:00,
2013-02-10 11:07:00,29.2,18.5,30.48,West,280,0.0,1.0,64,0.00,,,0.00,Wunderground v.1.15,2013-02-10 16:07:00,
2013-02-10 11:09:00,29.4,18.3,30.48,West,281,0.0,1.0,63,0.00,,,0.00,Wunderground v.1.15,2013-02-10 16:09:00,
2013-02-10 11:11:00,29.6,18.5,30.47,West,275,0.0,0.0,63,0.00,,,0.00,Wunderground v.1.15,2013-02-10 16:11:00,
2013-02-10 11:13:00,30.0,18.9,30.47,West,281,0.0,0.0,63,0.00,,,0.00,Wunderground v.1.15,2013-02-10 16:13:00,
2013-02-10 11:15:00,30.3,18.8,30.47,East,101,0.0,6.0,62,0.00,,,0.00,Wunderground v.1.15,2013-02-10 16:15:00,
2013-02-10 11:16:00,30.4,18.2,30.47,ESE,103,1.0,6.0,60,0.00,,,0.00,Wunderground v.1.15,2013-02-10 16:16:00,
2013-02-10 11:19:00,30.7,18.1,30.47,SE,125,1.0,6.0,59,0.00,,,0.00,Wunderground v.1.15,2013-02-10 16:19:00,
2013-02-10 11:21:00,30.5,17.5,30.47,East,101,1.0,4.0,58,0.00,,,0.00,Wunderground v.1.15,2013-02-10 16:21:00,
2013-02-10 11:22:00,30.5,17.9,30.47,ESE,106,1.0,4.0,59,0.00,,,0.00,Wunderground v.1.15,2013-02-10 16:22:00,
2013-02-10 11:26:00,30.3,17.7,30.47,SE,134,2.0,4.0,59,0.00,,,0.00,Wunderground v.1.15,2013-02-10 16:26:00,
2013-02-10 11:27:00,30.3,17.7,30.46,SE,132,2.0,4.0,59,0.00,,,0.00,Wunderground v.1.15,2013-02-10 16:27:00,
2013-02-10 11:28:00,30.4,17.8,30.46,SE,132,2.0,4.0,59,0.00,,,0.00,Wunderground v.1.15,2013-02-10 16:28:00,
2013-02-10 11:32:00,30.7,18.1,30.46,ESE,103,2.0,3.0,59,0.00,,,0.00,Wunderground v.1.15,2013-02-10 16:32:00,
2013-02-10 11:35:00,30.8,18.1,30.46,ESE,118,1.0,3.0,59,0.00,,,0.00,Wunderground v.1.15,2013-02-10 16:35:00,
2013-02-10 11:36:00,31.0,18.3,30.46,ESE,115,1.0,3.0,59,0.00,,,0.00,Wunderground v.1.15,2013-02-10 16:36:00,
2013-02-10 11:38:00,31.3,18.6,30.45,SW,215,1.0,3.0,59,0.00,,,0.00,Wunderground v.1.15,2013-02-10 16:38:00,
2013-02-10 11:39:00,31.4,18.7,30.45,SW,215,1.0,3.0,59,0.00,,,0.00,Wunderground v.1.15,2013-02-10 16:39:00,
2013-02-10 11:42:00,31.6,18.9,30.45,SE,142,1.0,2.0,59,0.00,,,0.00,Wunderground v.1.15,2013-02-10 16:42:00,
2013-02-10 11:43:00,31.7,19.0,30.45,ESE,112,1.0,5.0,59,0.00,,,0.00,Wunderground v.1.15,2013-02-10 16:43:00,
2013-02-10 11:45:00,31.6,18.5,30.45,SE,131,1.0,5.0,58,0.00,,,0.00,Wunderground v.1.15,2013-02-10 16:45:00,
2013-02-10 11:47:00,31.8,19.1,30.45,SSW,200,1.0,5.0,59,0.00,,,0.00,Wunderground v.1.15,2013-02-10 16:47:00,
2013-02-10 11:50:00,32.1,18.6,30.45,SE,124,1.0,1.0,57,0.00,,,0.00,Wunderground v.1.15,2013-02-10 16:50:00,
2013-02-10 11:53:00,32.2,19.1,30.45,West,263,1.0,1.0,58,0.00,,,0.00,Wunderground v.1.15,2013-02-10 16:53:00,
2013-02-10 11:56:00,32.3,18.8,30.45,West,267,1.0,1.0,57,0.00,,,0.00,Wunderground v.1.15,2013-02-10 16:56:00,
2013-02-10 11:59:00,32.4,18.8,30.45,SSW,209,1.0,1.0,57,0.00,,,0.00,Wunderground v.1.15,2013-02-10 16:59:00,
2013-02-10 12:02:00,32.6,19.4,30.45,ESE,123,1.0,7.0,58,0.00,,,0.00,Wunderground v.1.15,2013-02-10 17:02:00,
2013-02-10 12:04:00,32.6,19.0,30.45,SE,129,1.0,7.0,57,0.00,,,0.00,Wunderground v.1.15,2013-02-10 17:04:00,
2013-02-10 12:05:00,32.4,19.3,30.45,SE,139,1.0,7.0,58,0.00,,,0.00,Wunderground v.1.15,2013-02-10 17:05:00,
2013-02-10 12:09:00,32.5,19.7,30.44,SE,126,1.0,7.0,59,0.00,,,0.00,Wunderground v.1.15,2013-02-10 17:09:00,
2013-02-10 12:10:00,32.5,19.3,30.44,ESE,107,1.0,4.0,58,0.00,,,0.00,Wunderground v.1.15,2013-02-10 17:10:00,
2013-02-10 12:13:00,32.8,20.0,30.44,SE,130,1.0,4.0,59,0.00,,,0.00,Wunderground v.1.15,2013-02-10 17:13:00,
2013-02-10 12:16:00,32.9,20.1,30.44,SSE,149,1.0,4.0,59,0.00,,,0.00,Wunderground v.1.15,2013-02-10 17:16:00,
2013-02-10 12:18:00,33.0,20.2,30.44,SW,223,1.0,8.0,59,0.00,,,0.00,Wunderground v.1.15,2013-02-10 17:18:00,
2013-02-10 12:21:00,33.1,20.3,30.44,SW,229,1.0,1.0,59,0.00,,,0.00,Wunderground v.1.15,2013-02-10 17:21:00,
2013-02-10 12:22:00,33.2,20.4,30.44,South,190,1.0,1.0,59,0.00,,,0.00,Wunderground v.1.15,2013-02-10 17:22:00,
2013-02-10 12:24:00,33.3,20.5,30.44,South,188,1.0,1.0,59,0.00,,,0.00,Wunderground v.1.15,2013-02-10 17:24:00,
2013-02-10 12:27:00,33.4,20.2,30.44,South,188,0.0,1.0,58,0.00,,,0.00,Wunderground v.1.15,2013-02-10 17:27:00,
2013-02-10 12:28:00,33.4,20.2,30.44,SSW,194,0.0,1.0,58,0.00,,,0.00,Wunderground v.1.15,2013-02-10 17:28:00,
2013-02-10 12:29:00,33.4,20.2,30.44,WSW,238,0.0,1.0,58,0.00,,,0.00,Wunderground v.1.15,2013-02-10 17:29:00,
2013-02-10 12:31:00,33.4,20.2,30.44,SW,234,0.0,8.0,58,0.00,,,0.00,Wunderground v.1.15,2013-02-10 17:31:00,
2013-02-10 12:33:00,33.3,20.1,30.44,SE,127,0.0,8.0,58,0.00,,,0.00,Wunderground v.1.15,2013-02-10 17:33:00,
2013-02-10 12:34:00,33.2,20.0,30.44,SE,127,0.0,8.0,58,0.00,,,0.00,Wunderground v.1.15,2013-02-10 17:34:00,
2013-02-10 12:37:00,33.1,20.3,30.44,SE,138,1.0,8.0,59,0.00,,,0.00,Wunderground v.1.15,2013-02-10 17:37:00,
2013-02-10 12:38:00,33.0,20.6,30.44,SE,138,1.0,8.0,60,0.00,,,0.00,Wunderground v.1.15,2013-02-10 17:38:00,
2013-02-10 12:41:00,33.0,20.6,30.44,SE,138,1.0,1.0,60,0.00,,,0.00,Wunderground v.1.15,2013-02-10 17:41:00,
2013-02-10 12:42:00,33.1,20.7,30.44,SE,138,1.0,1.0,60,0.00,,,0.00,Wunderground v.1.15,2013-02-10 17:42:00,
2013-02-10 12:44:00,33.1,20.7,30.43,SE,136,0.0,1.0,60,0.00,,,0.00,Wunderground v.1.15,2013-02-10 17:44:00,
2013-02-10 12:45:00,33.2,20.8,30.43,SSE,160,0.0,1.0,60,0.00,,,0.00,Wunderground v.1.15,2013-02-10 17:45:00,
2013-02-10 12:51:00,33.0,20.6,30.43,ESE,111,0.0,0.0,60,0.00,,,0.00,Wunderground v.1.15,2013-02-10 17:51:00,
2013-02-10 12:52:00,33.0,20.6,30.43,ESE,110,0.0,0.0,60,0.00,,,0.00,Wunderground v.1.15,2013-02-10 17:52:00,
2013-02-10 12:53:00,32.9,20.1,30.44,ESE,111,0.0,0.0,59,0.00,,,0.00,Wunderground v.1.15,2013-02-10 17:53:00,
2013-02-10 12:58:00,32.9,20.1,30.43,ESE,112,0.0,2.0,59,0.00,,,0.00,Wunderground v.1.15,2013-02-10 17:58:00,
2013-02-10 12:59:00,32.9,20.1,30.43,ESE,112,0.0,2.0,59,0.00,,,0.00,Wunderground v.1.15,2013-02-10 17:59:00,
2013-02-10 13:00:00,33.0,20.6,30.43,ESE,112,0.0,0.0,60,0.00,,,0.00,Wunderground v.1.15,2013-02-10 18:00:00,
2013-02-10 13:03:00,33.3,20.9,30.43,ESE,111,0.0,8.0,60,0.00,,,0.00,Wunderground v.1.15,2013-02-10 18:03:00,
2013-02-10 13:05:00,33.4,21.0,30.43,ESE,111,0.0,8.0,60,0.00,,,0.00,Wunderground v.1.15,2013-02-10 18:05:00,
2013-02-10 13:06:00,33.4,20.6,30.43,ESE,112,0.0,8.0,59,0.00,,,0.00,Wunderground v.1.15,2013-02-10 18:06:00,
2013-02-10 13:07:00,33.5,20.3,30.42,ESE,112,0.0,8.0,58,0.00,,,0.00,Wunderground v.1.15,2013-02-10 18:07:00,
2013-02-10 13:09:00,33.6,20.4,30.42,ESE,112,0.0,8.0,58,0.00,,,0.00,Wunderground v.1.15,2013-02-10 18:09:00,
2013-02-10 13:11:00,33.7,20.5,30.42,East,99,0.0,0.0,58,0.00,,,0.00,Wunderground v.1.15,2013-02-10 18:11:00,
2013-02-10 13:16:00,34.3,20.6,30.42,South,173,0.0,0.0,57,0.00,,,0.00,Wunderground v.1.15,2013-02-10 18:16:00,
2013-02-10 13:20:00,34.5,19.1,30.42,SE,136,1.0,1.0,53,0.00,,,0.00,Wunderground v.1.15,2013-02-10 18:20:00,
2013-02-10 13:21:00,34.6,19.2,30.42,ESE,113,1.0,1.0,53,0.00,,,0.00,Wunderground v.1.15,2013-02-10 18:21:00,
2013-02-10 13:22:00,34.7,19.3,30.41,ESE,113,1.0,1.0,53,0.00,,,0.00,Wunderground v.1.15,2013-02-10 18:22:00,
2013-02-10 13:23:00,34.9,20.4,30.41,SSW,198,1.0,1.0,55,0.00,,,0.00,Wunderground v.1.15,2013-02-10 18:23:00,
2013-02-10 13:25:00,35.1,20.1,30.42,SE,133,1.0,9.0,54,0.00,,,0.00,Wunderground v.1.15,2013-02-10 18:25:00,
2013-02-10 13:27:00,34.8,18.9,30.41,SSE,155,2.0,9.0,52,0.00,,,0.00,Wunderground v.1.15,2013-02-10 18:27:00,
2013-02-10 13:28:00,34.7,19.7,30.41,SE,146,1.0,9.0,54,0.00,,,0.00,Wunderground v.1.15,2013-02-10 18:28:00,
2013-02-10 13:30:00,34.8,19.4,30.41,SE,131,1.0,2.0,53,0.00,,,0.00,Wunderground v.1.15,2013-02-10 18:30:00,
2013-02-10 13:31:00,34.7,19.3,30.41,ESE,118,2.0,6.0,53,0.00,,,0.00,Wunderground v.1.15,2013-02-10 18:31:00,
2013-02-10 13:34:00,34.4,19.0,30.41,ESE,111,2.0,6.0,53,0.00,,,0.00,Wunderground v.1.15,2013-02-10 18:34:00,
2013-02-10 13:35:00,34.4,19.0,30.41,ESE,113,3.0,6.0,53,0.00,,,0.00,Wunderground v.1.15,2013-02-10 18:35:00,
2013-02-10 13:37:00,34.3,19.4,30.41,SW,230,2.0,6.0,54,0.00,,,0.00,Wunderground v.1.15,2013-02-10 18:37:00,
2013-02-10 13:38:00,34.4,19.5,30.41,SW,230,3.0,6.0,54,0.00,,,0.00,Wunderground v.1.15,2013-02-10 18:38:00,
2013-02-10 13:40:00,34.4,19.9,30.41,SSE,161,2.0,2.0,55,0.00,,,0.00,Wunderground v.1.15,2013-02-10 18:40:00,
2013-02-10 13:43:00,34.8,18.9,30.40,SSE,163,2.0,6.0,52,0.00,,,0.00,Wunderground v.1.15,2013-02-10 18:43:00,
2013-02-10 13:44:00,34.9,19.0,30.40,SSE,153,2.0,6.0,52,0.00,,,0.00,Wunderground v.1.15,2013-02-10 18:44:00,
2013-02-10 13:45:00,34.9,18.6,30.40,ESE,114,2.0,6.0,51,0.00,,,0.00,Wunderground v.1.15,2013-02-10 18:45:00,
2013-02-10 13:49:00,35.0,18.7,30.40,SSW,209,1.0,6.0,51,0.00,,,0.00,Wunderground v.1.15,2013-02-10 18:49:00,
2013-02-10 13:51:00,35.2,19.3,30.39,South,178,2.0,2.0,52,0.00,,,0.00,Wunderground v.1.15,2013-02-10 18:51:00,
2013-02-10 13:53:00,35.6,19.7,30.39,ESE,105,1.0,2.0,52,0.00,,,0.00,Wunderground v.1.15,2013-02-10 18:53:00,
2013-02-10 13:54:00,35.6,19.7,30.39,ESE,105,1.0,2.0,52,0.00,,,0.00,Wunderground v.1.15,2013-02-10 18:54:00,
2013-02-10 13:55:00,35.7,19.8,30.39,SE,145,1.0,2.0,52,0.00,,,0.00,Wunderground v.1.15,2013-02-10 18:55:00,
2013-02-10 13:59:00,35.7,19.3,30.39,SSE,161,2.0,10.0,51,0.00,,,0.00,Wunderground v.1.15,2013-02-10 18:59:00,
2013-02-10 14:00:00,35.6,19.2,30.39,SSE,156,2.0,2.0,51,0.00,,,0.00,Wunderground v.1.15,2013-02-10 19:00:00,
2013-02-10 14:04:00,35.7,19.8,30.39,East,101,2.0,11.0,52,0.00,,,0.00,Wunderground v.1.15,2013-02-10 19:04:00,
2013-02-10 14:06:00,35.9,19.5,30.39,SW,215,2.0,11.0,51,0.00,,,0.00,Wunderground v.1.15,2013-02-10 19:06:00,
2013-02-10 14:09:00,36.1,19.2,30.39,South,186,1.0,11.0,50,0.00,,,0.00,Wunderground v.1.15,2013-02-10 19:09:00,
2013-02-10 14:11:00,36.1,19.2,30.39,South,187,1.0,1.0,50,0.00,,,0.00,Wunderground v.1.15,2013-02-10 19:11:00,
2013-02-10 14:17:00,36.4,19.0,30.39,SW,214,0.0,1.0,49,0.00,,,0.00,Wunderground v.1.15,2013-02-10 19:17:00,
2013-02-10 14:18:00,36.5,19.1,30.39,SSW,198,0.0,1.0,49,0.00,,,0.00,Wunderground v.1.15,2013-02-10 19:18:00,
2013-02-10 14:20:00,36.6,19.2,30.39,ESE,113,0.0,0.0,49,0.00,,,0.00,Wunderground v.1.15,2013-02-10 19:20:00,
2013-02-10 14:24:00,36.7,18.8,30.38,ENE,78,1.0,3.0,48,0.00,,,0.00,Wunderground v.1.15,2013-02-10 19:24:00,
2013-02-10 14:25:00,36.6,18.7,30.38,WSW,248,1.0,3.0,48,0.00,,,0.00,Wunderground v.1.15,2013-02-10 19:25:00,
2013-02-10 14:27:00,36.7,18.3,30.39,SSE,149,1.0,3.0,47,0.00,,,0.00,Wunderground v.1.15,2013-02-10 19:27:00,
2013-02-10 14:30:00,36.6,18.7,30.38,SE,142,1.0,7.0,48,0.00,,,0.00,Wunderground v.1.15,2013-02-10 19:30:00,
2013-02-10 14:33:00,36.5,18.6,30.38,East,99,1.0,10.0,48,0.00,,,0.00,Wunderground v.1.15,2013-02-10 19:33:00,
2013-02-10 14:34:00,36.5,19.1,30.38,SE,134,1.0,10.0,49,0.00,,,0.00,Wunderground v.1.15,2013-02-10 19:34:00,
2013-02-10 14:35:00,36.6,19.2,30.37,ESE,116,1.0,10.0,49,0.00,,,0.00,Wunderground v.1.15,2013-02-10 19:35:00,
2013-02-10 14:36:00,36.8,19.9,30.37,SE,142,1.0,10.0,50,0.00,,,0.00,Wunderground v.1.15,2013-02-10 19:36:00,
2013-02-10 14:41:00,37.3,20.3,30.37,SW,219,1.0,1.0,50,0.00,,,0.00,Wunderground v.1.15,2013-02-10 19:41:00,
2013-02-10 14:42:00,37.5,20.1,30.37,ESE,108,1.0,1.0,49,0.00,,,0.00,Wunderground v.1.15,2013-02-10 19:42:00,
2013-02-10 14:43:00,37.7,19.8,30.38,SE,134,1.0,1.0,48,0.00,,,0.00,Wunderground v.1.15,2013-02-10 19:43:00,
2013-02-10 14:44:00,37.7,20.2,30.38,SSE,150,1.0,1.0,49,0.00,,,0.00,Wunderground v.1.15,2013-02-10 19:44:00,
2013-02-10 14:50:00,37.1,19.2,30.37,SE,134,1.0,1.0,48,0.00,,,0.00,Wunderground v.1.15,2013-02-10 19:50:00,
2013-02-10 14:52:00,37.1,19.2,30.37,SSW,192,2.0,2.0,48,0.00,,,0.00,Wunderground v.1.15,2013-02-10 19:52:00,
2013-02-10 14:54:00,37.3,20.3,30.37,SE,124,1.0,2.0,50,0.00,,,0.00,Wunderground v.1.15,2013-02-10 19:54:00,
2013-02-10 14:57:00,37.7,20.2,30.37,South,178,1.0,2.0,49,0.00,,,0.00,Wunderground v.1.15,2013-02-10 19:57:00,
2013-02-10 14:59:00,37.7,19.3,30.37,SSE,156,1.0,6.0,47,0.00,,,0.00,Wunderground v.1.15,2013-02-10 19:59:00,
2013-02-10 15:02:00,37.5,19.1,30.36,SSE,152,1.0,8.0,47,0.00,,,0.00,Wunderground v.1.15,2013-02-10 20:02:00,
2013-02-10 15:03:00,37.5,19.1,30.36,South,172,1.0,8.0,47,0.00,,,0.00,Wunderground v.1.15,2013-02-10 20:03:00,
2013-02-10 15:07:00,37.6,19.7,30.36,SSE,157,1.0,8.0,48,0.00,,,0.00,Wunderground v.1.15,2013-02-10 20:07:00,
2013-02-10 15:08:00,37.5,19.6,30.36,ESE,114,1.0,8.0,48,0.00,,,0.00,Wunderground v.1.15,2013-02-10 20:08:00,
2013-02-10 15:09:00,37.5,20.1,30.36,SSE,148,1.0,8.0,49,0.00,,,0.00,Wunderground v.1.15,2013-02-10 20:09:00,
2013-02-10 15:12:00,37.5,20.5,30.36,East,97,1.0,1.0,50,0.00,,,0.00,Wunderground v.1.15,2013-02-10 20:12:00,
2013-02-10 15:15:00,37.6,20.1,30.36,SE,145,1.0,11.0,49,0.00,,,0.00,Wunderground v.1.15,2013-02-10 20:15:00,
2013-02-10 15:16:00,37.6,20.1,30.36,SE,134,1.0,11.0,49,0.00,,,0.00,Wunderground v.1.15,2013-02-10 20:16:00,
2013-02-10 15:21:00,37.4,20.0,30.36,SSE,147,1.0,1.0,49,0.00,,,0.00,Wunderground v.1.15,2013-02-10 20:21:00,
2013-02-10 15:23:00,37.4,20.0,30.36,SE,132,1.0,9.0,49,0.00,,,0.00,Wunderground v.1.15,2013-02-10 20:23:00,
2013-02-10 15:24:00,37.4,20.0,30.36,SE,132,1.0,9.0,49,0.00,,,0.00,Wunderground v.1.15,2013-02-10 20:24:00,
2013-02-10 15:25:00,37.4,20.4,30.36,SSE,166,1.0,9.0,50,0.00,,,0.00,Wunderground v.1.15,2013-02-10 20:25:00,
2013-02-10 15:27:00,37.4,20.4,30.36,SSW,195,1.0,9.0,50,0.00,,,0.00,Wunderground v.1.15,2013-02-10 20:27:00,
2013-02-10 15:31:00,37.5,20.5,30.36,ESE,120,1.0,11.0,50,0.00,,,0.00,Wunderground v.1.15,2013-02-10 20:31:00,
2013-02-10 15:32:00,37.6,20.6,30.36,ESE,114,1.0,11.0,50,0.00,,,0.00,Wunderground v.1.15,2013-02-10 20:32:00,
2013-02-10 15:36:00,38.0,21.5,30.36,SE,130,0.0,11.0,51,0.00,,,0.00,Wunderground v.1.15,2013-02-10 20:36:00,
2013-02-10 15:37:00,38.1,21.1,30.36,SE,130,0.0,11.0,50,0.00,,,0.00,Wunderground v.1.15,2013-02-10 20:37:00,
2013-02-10 15:43:00,37.9,19.9,30.37,ESE,107,1.0,3.0,48,0.00,,,0.00,Wunderground v.1.15,2013-02-10 20:43:00,
2013-02-10 15:45:00,37.6,19.7,30.37,SE,132,1.0,6.0,48,0.00,,,0.00,Wunderground v.1.15,2013-02-10 20:45:00,
2013-02-10 15:47:00,37.2,19.8,30.37,ESE,119,2.0,6.0,49,0.00,,,0.00,Wunderground v.1.15,2013-02-10 20:47:00,
2013-02-10 15:50:00,36.6,19.7,30.37,SE,132,2.0,2.0,50,0.00,,,0.00,Wunderground v.1.15,2013-02-10 20:50:00,
2013-02-10 15:51:00,36.6,20.2,30.37,SSE,165,2.0,2.0,51,0.00,,,0.00,Wunderground v.1.15,2013-02-10 20:51:00,
2013-02-10 15:52:00,36.5,19.6,30.37,SW,226,2.0,2.0,50,0.00,,,0.00,Wunderground v.1.15,2013-02-10 20:52:00,
2013-02-10 15:55:00,36.5,20.1,30.37,SSW,210,1.0,2.0,51,0.00,,,0.00,Wunderground v.1.15,2013-02-10 20:55:00,
2013-02-10 15:56:00,36.4,20.0,30.37,South,182,1.0,2.0,51,0.00,,,0.00,Wunderground v.1.15,2013-02-10 20:56:00,
2013-02-10 15:57:00,36.4,19.5,30.37,SE,131,1.0,2.0,50,0.00,,,0.00,Wunderground v.1.15,2013-02-10 20:57:00,
2013-02-10 16:01:00,36.3,18.9,30.36,South,187,0.0,11.0,49,0.00,,,0.00,Wunderground v.1.15,2013-02-10 21:01:00,
2013-02-10 16:02:00,36.3,18.9,30.36,SE,130,0.0,11.0,49,0.00,,,0.00,Wunderground v.1.15,2013-02-10 21:02:00,
2013-02-10 16:07:00,36.1,19.2,30.36,SSE,153,1.0,11.0,50,0.00,,,0.00,Wunderground v.1.15,2013-02-10 21:07:00,
2013-02-10 16:08:00,36.0,19.1,30.36,SE,128,1.0,11.0,50,0.00,,,0.00,Wunderground v.1.15,2013-02-10 21:08:00,
2013-02-10 16:13:00,35.7,18.9,30.35,South,186,1.0,6.0,50,0.00,,,0.00,Wunderground v.1.15,2013-02-10 21:13:00,
2013-02-10 16:14:00,35.6,19.2,30.35,SW,223,1.0,6.0,51,0.00,,,0.00,Wunderground v.1.15,2013-02-10 21:14:00,
2013-02-10 16:18:00,35.5,19.1,30.35,SE,142,1.0,6.0,51,0.00,,,0.00,Wunderground v.1.15,2013-02-10 21:18:00,
2013-02-10 16:19:00,35.5,19.1,30.35,SE,142,1.0,6.0,51,0.00,,,0.00,Wunderground v.1.15,2013-02-10 21:19:00,
2013-02-10 16:20:00,35.5,19.1,30.35,SE,142,1.0,1.0,51,0.00,,,0.00,Wunderground v.1.15,2013-02-10 21:20:00,
2013-02-10 16:26:00,35.4,19.5,30.35,SE,136,0.0,2.0,52,0.00,,,0.00,Wunderground v.1.15,2013-02-10 21:26:00,
2013-02-10 16:27:00,35.4,19.0,30.35,SE,146,1.0,2.0,51,0.00,,,0.00,Wunderground v.1.15,2013-02-10 21:27:00,
2013-02-10 16:29:00,35.3,19.4,30.35,SE,144,1.0,2.0,52,0.00,,,0.00,Wunderground v.1.15,2013-02-10 21:29:00,
2013-02-10 16:31:00,35.4,19.9,30.35,SE,142,1.0,7.0,53,0.00,,,0.00,Wunderground v.1.15,2013-02-10 21:31:00,
2013-02-10 16:33:00,35.3,19.0,30.35,ESE,114,1.0,7.0,51,0.00,,,0.00,Wunderground v.1.15,2013-02-10 21:33:00,
2013-02-10 16:37:00,35.3,19.0,30.35,ESE,118,1.0,7.0,51,0.00,,,0.00,Wunderground v.1.15,2013-02-10 21:37:00,
2013-02-10 16:38:00,35.3,19.4,30.35,ESE,119,1.0,7.0,52,0.00,,,0.00,Wunderground v.1.15,2013-02-10 21:38:00,
2013-02-10 16:40:00,35.2,19.3,30.35,ESE,119,1.0,1.0,52,0.00,,,0.00,Wunderground v.1.15,2013-02-10 21:40:00,
2013-02-10 16:42:00,35.2,19.3,30.35,ESE,113,1.0,1.0,52,0.00,,,0.00,Wunderground v.1.15,2013-02-10 21:42:00,
2013-02-10 16:44:00,35.2,18.9,30.35,SSE,159,1.0,1.0,51,0.00,,,0.00,Wunderground v.1.15,2013-02-10 21:44:00,
2013-02-10 16:48:00,35.2,18.9,30.35,SE,129,1.0,4.0,51,0.00,,,0.00,Wunderground v.1.15,2013-02-10 21:48:00,
2013-02-10 16:50:00,35.2,18.9,30.35,SE,144,1.0,1.0,51,0.00,,,0.00,Wunderground v.1.15,2013-02-10 21:50:00,
2013-02-10 16:52:00,35.2,19.3,30.35,SE,126,1.0,1.0,52,0.00,,,0.00,Wunderground v.1.15,2013-02-10 21:52:00,
2013-02-10 16:57:00,35.1,19.2,30.35,ESE,118,1.0,4.0,52,0.00,,,0.00,Wunderground v.1.15,2013-02-10 21:57:00,
2013-02-10 16:58:00,35.1,18.8,30.35,ESE,119,1.0,4.0,51,0.00,,,0.00,Wunderground v.1.15,2013-02-10 21:58:00,
2013-02-10 17:00:00,35.1,19.2,30.35,ESE,107,0.0,4.0,52,0.00,,,0.00,Wunderground v.1.15,2013-02-10 22:00:00,
2013-02-10 17:02:00,35.1,19.7,30.36,SE,128,1.0,8.0,53,0.00,,,0.00,Wunderground v.1.15,2013-02-10 22:02:00,
2013-02-10 17:04:00,35.0,19.1,30.36,SE,128,1.0,8.0,52,0.00,,,0.00,Wunderground v.1.15,2013-02-10 22:04:00,
2013-02-10 17:07:00,35.0,19.6,30.36,SE,128,0.0,8.0,53,0.00,,,0.00,Wunderground v.1.15,2013-02-10 22:07:00,
2013-02-10 17:09:00,35.0,19.6,30.36,SE,128,0.0,8.0,53,0.00,,,0.00,Wunderground v.1.15,2013-02-10 22:09:00,
2013-02-10 17:10:00,35.0,20.0,30.36,SE,125,0.0,0.0,54,0.00,,,0.00,Wunderground v.1.15,2013-02-10 22:10:00,
2013-02-10 17:15:00,34.9,19.9,30.35,SE,125,0.0,4.0,54,0.00,,,0.00,Wunderground v.1.15,2013-02-10 22:15:00,
2013-02-10 17:16:00,34.9,19.5,30.35,ESE,118,0.0,4.0,53,0.00,,,0.00,Wunderground v.1.15,2013-02-10 22:16:00,
2013-02-10 17:18:00,34.8,19.8,30.35,ESE,110,0.0,4.0,54,0.00,,,0.00,Wunderground v.1.15,2013-02-10 22:18:00,
2013-02-10 17:20:00,34.8,19.4,30.35,SE,143,0.0,2.0,53,0.00,,,0.00,Wunderground v.1.15,2013-02-10 22:20:00,
2013-02-10 17:21:00,34.8,19.4,30.35,SE,126,0.0,2.0,53,0.00,,,0.00,Wunderground v.1.15,2013-02-10 22:21:00,
2013-02-10 17:23:00,34.8,20.7,30.35,SE,126,1.0,2.0,56,0.00,,,0.00,Wunderground v.1.15,2013-02-10 22:23:00,
2013-02-10 17:26:00,34.8,19.8,30.35,SE,125,1.0,2.0,54,0.00,,,0.00,Wunderground v.1.15,2013-02-10 22:26:00,
2013-02-10 17:27:00,34.7,19.7,30.35,SE,125,1.0,2.0,54,0.00,,,0.00,Wunderground v.1.15,2013-02-10 22:27:00,
2013-02-10 17:28:00,34.7,19.7,30.34,SE,125,1.0,2.0,54,0.00,,,0.00,Wunderground v.1.15,2013-02-10 22:28:00,
2013-02-10 17:32:00,34.6,19.2,30.34,SE,126,1.0,9.0,53,0.00,,,0.00,Wunderground v.1.15,2013-02-10 22:32:00,
2013-02-10 17:33:00,34.6,19.6,30.34,SE,130,1.0,9.0,54,0.00,,,0.00,Wunderground v.1.15,2013-02-10 22:33:00,
2013-02-10 17:37:00,34.6,19.2,30.35,SSE,155,1.0,9.0,53,0.00,,,0.00,Wunderground v.1.15,2013-02-10 22:37:00,
2013-02-10 17:39:00,34.6,19.6,30.35,SE,137,1.0,9.0,54,0.00,,,0.00,Wunderground v.1.15,2013-02-10 22:39:00,
2013-02-10 17:40:00,34.5,19.1,30.35,SE,134,1.0,2.0,53,0.00,,,0.00,Wunderground v.1.15,2013-02-10 22:40:00,
2013-02-10 17:41:00,34.5,19.1,30.34,SSE,149,1.0,2.0,53,0.00,,,0.00,Wunderground v.1.15,2013-02-10 22:41:00,
2013-02-10 17:43:00,34.6,19.2,30.34,SE,142,1.0,2.0,53,0.00,,,0.00,Wunderground v.1.15,2013-02-10 22:43:00,
2013-02-10 17:46:00,34.6,19.6,30.34,East,101,1.0,2.0,54,0.00,,,0.00,Wunderground v.1.15,2013-02-10 22:46:00,
2013-02-10 17:47:00,34.5,19.5,30.34,SE,134,1.0,2.0,54,0.00,,,0.00,Wunderground v.1.15,2013-02-10 22:47:00,
2013-02-10 17:49:00,34.5,20.4,30.34,ESE,121,1.0,2.0,56,0.00,,,0.00,Wunderground v.1.15,2013-02-10 22:49:00,
2013-02-10 17:51:00,34.4,19.5,30.34,ESE,105,1.0,1.0,54,0.00,,,0.00,Wunderground v.1.15,2013-02-10 22:51:00,
2013-02-10 17:56:00,34.4,19.5,30.34,ESE,105,1.0,5.0,54,0.00,,,0.00,Wunderground v.1.15,2013-02-10 22:56:00,
2013-02-10 17:57:00,34.4,19.9,30.34,ESE,102,1.0,5.0,55,0.00,,,0.00,Wunderground v.1.15,2013-02-10 22:57:00,
2013-02-10 18:03:00,34.4,20.7,30.34,SE,125,1.0,5.0,57,0.00,,,0.00,Wunderground v.1.15,2013-02-10 23:03:00,
2013-02-10 18:04:00,34.3,20.6,30.34,SE,126,1.0,5.0,57,0.00,,,0.00,Wunderground v.1.15,2013-02-10 23:04:00,
2013-02-10 18:07:00,34.2,20.1,30.34,SE,128,0.0,5.0,56,0.00,,,0.00,Wunderground v.1.15,2013-02-10 23:07:00,
2013-02-10 18:08:00,34.2,20.1,30.34,ESE,117,0.0,5.0,56,0.00,,,0.00,Wunderground v.1.15,2013-02-10 23:08:00,
2013-02-10 18:10:00,34.2,19.7,30.34,SSE,152,1.0,1.0,55,0.00,,,0.00,Wunderground v.1.15,2013-02-10 23:10:00,
2013-02-10 18:12:00,34.2,19.7,30.34,ESE,119,1.0,2.0,55,0.00,,,0.00,Wunderground v.1.15,2013-02-10 23:12:00,
2013-02-10 18:15:00,34.1,20.4,30.34,SE,138,1.0,2.0,57,0.00,,,0.00,Wunderground v.1.15,2013-02-10 23:15:00,
2013-02-10 18:16:00,34.1,20.0,30.35,SE,129,1.0,2.0,56,0.00,,,0.00,Wunderground v.1.15,2013-02-10 23:16:00,
2013-02-10 18:18:00,34.1,20.0,30.34,ESE,122,2.0,4.0,56,0.00,,,0.00,Wunderground v.1.15,2013-02-10 23:18:00,
2013-02-10 18:21:00,34.1,20.0,30.34,SSE,150,1.0,6.0,56,0.00,,,0.00,Wunderground v.1.15,2013-02-10 23:21:00,
2013-02-10 18:22:00,34.1,20.0,30.34,SE,138,2.0,6.0,56,0.00,,,0.00,Wunderground v.1.15,2013-02-10 23:22:00,
2013-02-10 18:24:00,34.2,19.7,30.34,SE,125,2.0,6.0,55,0.00,,,0.00,Wunderground v.1.15,2013-02-10 23:24:00,
2013-02-10 18:25:00,34.2,20.1,30.34,ESE,121,2.0,6.0,56,0.00,,,0.00,Wunderground v.1.15,2013-02-10 23:25:00,
2013-02-10 18:30:00,34.1,20.4,30.34,ESE,118,3.0,5.0,57,0.00,,,0.00,Wunderground v.1.15,2013-02-10 23:30:00,
2013-02-10 18:34:00,34.0,20.3,30.33,SE,134,2.0,8.0,57,0.00,,,0.00,Wunderground v.1.15,2013-02-10 23:34:00,
2013-02-10 18:35:00,34.0,20.3,30.33,SE,128,2.0,8.0,57,0.00,,,0.00,Wunderground v.1.15,2013-02-10 23:35:00,
2013-02-10 18:36:00,34.0,19.9,30.33,East,101,2.0,8.0,56,0.00,,,0.00,Wunderground v.1.15,2013-02-10 23:36:00,
2013-02-10 18:41:00,34.0,20.3,30.34,SE,140,2.0,4.0,57,0.00,,,0.00,Wunderground v.1.15,2013-02-10 23:41:00,
2013-02-10 18:42:00,34.0,20.3,30.34,SE,140,2.0,4.0,57,0.00,,,0.00,Wunderground v.1.15,2013-02-10 23:42:00,
2013-02-10 18:44:00,34.0,20.3,30.34,SSE,155,2.0,4.0,57,0.00,,,0.00,Wunderground v.1.15,2013-02-10 23:44:00,
2013-02-10 18:46:00,33.9,20.3,30.34,South,171,2.0,4.0,57,0.00,,,0.00,Wunderground v.1.15,2013-02-10 23:46:00,
2013-02-10 18:49:00,34.0,20.3,30.34,SSE,155,1.0,4.0,57,0.00,,,0.00,Wunderground v.1.15,2013-02-10 23:49:00,
2013-02-10 18:51:00,34.0,20.3,30.34,SE,144,1.0,1.0,57,0.00,,,0.00,Wunderground v.1.15,2013-02-10 23:51:00,
2013-02-10 18:55:00,34.0,20.3,30.33,ESE,123,1.0,6.0,57,0.00,,,0.00,Wunderground v.1.15,2013-02-10 23:55:00,
2013-02-10 18:56:00,34.0,19.9,30.34,ESE,103,1.0,6.0,56,0.00,,,0.00,Wunderground v.1.15,2013-02-10 23:56:00,
2013-02-10 18:59:00,34.0,20.3,30.34,SE,134,2.0,6.0,57,0.00,,,0.00,Wunderground v.1.15,2013-02-10 23:59:00,
2013-02-10 19:02:00,34.1,20.4,30.33,SE,128,2.0,11.0,57,0.00,,,0.00,Wunderground v.1.15,2013-02-11 00:02:00,
2013-02-10 19:04:00,34.0,20.3,30.33,ESE,111,2.0,11.0,57,0.00,,,0.00,Wunderground v.1.15,2013-02-11 00:04:00,
2013-02-10 19:08:00,34.0,20.3,30.34,ESE,115,2.0,11.0,57,0.00,,,0.00,Wunderground v.1.15,2013-02-11 00:08:00,
2013-02-10 19:11:00,34.0,20.3,30.34,SE,140,2.0,6.0,57,0.00,,,0.00,Wunderground v.1.15,2013-02-11 00:11:00,
2013-02-10 19:15:00,33.9,20.3,30.34,SSE,165,2.0,7.0,57,0.00,,,0.00,Wunderground v.1.15,2013-02-11 00:15:00,
2013-02-10 19:16:00,33.9,20.3,30.33,ESE,117,2.0,7.0,57,0.00,,,0.00,Wunderground v.1.15,2013-02-11 00:16:00,
2013-02-10 19:18:00,33.9,20.3,30.33,SE,125,2.0,7.0,57,0.00,,,0.00,Wunderground v.1.15,2013-02-11 00:18:00,
2013-02-10 19:23:00,33.9,20.7,30.33,ESE,107,2.0,7.0,58,0.00,,,0.00,Wunderground v.1.15,2013-02-11 00:23:00,
2013-02-10 19:24:00,33.9,20.3,30.33,ESE,121,2.0,7.0,57,0.00,,,0.00,Wunderground v.1.15,2013-02-11 00:24:00,
2013-02-10 19:29:00,33.8,20.6,30.33,SE,146,2.0,7.0,58,0.00,,,0.00,Wunderground v.1.15,2013-02-11 00:29:00,
2013-02-10 19:31:00,33.8,20.6,30.33,SSE,156,2.0,8.0,58,0.00,,,0.00,Wunderground v.1.15,2013-02-11 00:31:00,
2013-02-10 19:32:00,33.8,20.6,30.33,SE,145,2.0,8.0,58,0.00,,,0.00,Wunderground v.1.15,2013-02-11 00:32:00,
2013-02-10 19:35:00,33.8,20.6,30.33,SE,140,2.0,8.0,58,0.00,,,0.00,Wunderground v.1.15,2013-02-11 00:35:00,
2013-02-10 19:37:00,33.7,20.5,30.33,SE,141,2.0,8.0,58,0.00,,,0.00,Wunderground v.1.15,2013-02-11 00:37:00,
2013-02-10 19:42:00,33.7,20.9,30.33,SE,128,2.0,2.0,59,0.00,,,0.00,Wunderground v.1.15,2013-02-11 00:42:00,
2013-02-10 19:44:00,33.7,20.9,30.33,SSE,163,2.0,4.0,59,0.00,,,0.00,Wunderground v.1.15,2013-02-11 00:44:00,
2013-02-10 19:47:00,33.7,20.9,30.33,ESE,123,2.0,9.0,59,0.00,,,0.00,Wunderground v.1.15,2013-02-11 00:47:00,
2013-02-10 19:50:00,33.7,20.9,30.33,SE,146,2.0,2.0,59,0.00,,,0.00,Wunderground v.1.15,2013-02-11 00:50:00,
2013-02-10 19:53:00,33.7,20.9,30.33,SSE,150,2.0,2.0,59,0.00,,,0.00,Wunderground v.1.15,2013-02-11 00:53:00,
2013-02-10 19:54:00,33.7,20.9,30.33,SSE,150,2.0,2.0,59,0.00,,,0.00,Wunderground v.1.15,2013-02-11 00:54:00,
2013-02-10 19:55:00,33.7,20.9,30.33,SE,134,2.0,2.0,59,0.00,,,0.00,Wunderground v.1.15,2013-02-11 00:55:00,
2013-02-10 19:56:00,33.7,21.3,30.32,SSE,150,2.0,2.0,60,0.00,,,0.00,Wunderground v.1.15,2013-02-11 00:56:00,
2013-02-10 20:00:00,33.7,21.3,30.32,SE,141,1.0,1.0,60,0.00,,,0.00,Wunderground v.1.15,2013-02-11 01:00:00,
2013-02-10 20:01:00,33.7,21.3,30.32,SE,146,1.0,12.0,60,0.00,,,0.00,Wunderground v.1.15,2013-02-11 01:01:00,
2013-02-10 20:02:00,33.7,21.3,30.33,SE,146,1.0,12.0,60,0.00,,,0.00,Wunderground v.1.15,2013-02-11 01:02:00,
2013-02-10 20:07:00,33.6,21.2,30.33,SE,132,1.0,12.0,60,0.00,,,0.00,Wunderground v.1.15,2013-02-11 01:07:00,
2013-02-10 20:09:00,33.7,20.9,30.33,SE,125,1.0,12.0,59,0.00,,,0.00,Wunderground v.1.15,2013-02-11 01:09:00,
2013-02-10 20:10:00,33.7,20.9,30.34,SE,140,1.0,1.0,59,0.00,,,0.00,Wunderground v.1.15,2013-02-11 01:10:00,
2013-02-10 20:12:00,33.8,21.0,30.33,SE,141,1.0,5.0,59,0.00,,,0.00,Wunderground v.1.15,2013-02-11 01:12:00,
2013-02-10 20:15:00,33.8,21.0,30.34,SE,133,2.0,5.0,59,0.00,,,0.00,Wunderground v.1.15,2013-02-11 01:15:00,
2013-02-10 20:17:00,33.8,21.4,30.34,South,190,2.0,5.0,60,0.00,,,0.00,Wunderground v.1.15,2013-02-11 01:17:00,
2013-02-10 20:20:00,33.9,21.1,30.34,SE,146,2.0,2.0,59,0.00,,,0.00,Wunderground v.1.15,2013-02-11 01:20:00,
2013-02-10 20:22:00,33.9,21.1,30.33,SSE,158,2.0,4.0,59,0.00,,,0.00,Wunderground v.1.15,2013-02-11 01:22:00,
2013-02-10 20:24:00,33.9,21.1,30.33,SSE,165,2.0,4.0,59,0.00,,,0.00,Wunderground v.1.15,2013-02-11 01:24:00,
2013-02-10 20:25:00,34.0,21.2,30.33,SE,134,1.0,4.0,59,0.00,,,0.00,Wunderground v.1.15,2013-02-11 01:25:00,
2013-02-10 20:29:00,34.0,21.2,30.33,South,179,2.0,8.0,59,0.00,,,0.00,Wunderground v.1.15,2013-02-11 01:29:00,
2013-02-10 20:32:00,34.0,21.2,30.33,ESE,121,2.0,11.0,59,0.00,,,0.00,Wunderground v.1.15,2013-02-11 01:32:00,
2013-02-10 20:33:00,33.9,21.1,30.33,SE,141,2.0,11.0,59,0.00,,,0.00,Wunderground v.1.15,2013-02-11 01:33:00,
2013-02-10 20:37:00,33.9,21.1,30.32,SE,145,3.0,11.0,59,0.00,,,0.00,Wunderground v.1.15,2013-02-11 01:37:00,
2013-02-10 20:38:00,33.9,21.1,30.32,ESE,117,3.0,11.0,59,0.00,,,0.00,Wunderground v.1.15,2013-02-11 01:38:00,
2013-02-10 20:39:00,33.9,21.5,30.32,SE,141,3.0,11.0,60,0.00,,,0.00,Wunderground v.1.15,2013-02-11 01:39:00,
2013-02-10 20:42:00,33.9,21.1,30.32,SE,142,3.0,7.0,59,0.00,,,0.00,Wunderground v.1.15,2013-02-11 01:42:00,
2013-02-10 20:43:00,33.8,21.0,30.32,SE,124,3.0,7.0,59,0.00,,,0.00,Wunderground v.1.15,2013-02-11 01:43:00,
2013-02-10 20:45:00,33.8,21.4,30.32,SE,125,3.0,7.0,60,0.00,,,0.00,Wunderground v.1.15,2013-02-11 01:45:00,
2013-02-10 20:48:00,33.6,21.2,30.31,East,95,2.0,7.0,60,0.00,,,0.00,Wunderground v.1.15,2013-02-11 01:48:00,
2013-02-10 20:49:00,33.6,21.2,30.31,SE,137,2.0,7.0,60,0.00,,,0.00,Wunderground v.1.15,2013-02-11 01:49:00,
2013-02-10 20:50:00,33.6,21.2,30.32,ESE,112,2.0,7.0,60,0.00,,,0.00,Wunderground v.1.15,2013-02-11 01:50:00,
2013-02-10 20:53:00,33.5,21.5,30.32,SE,146,1.0,7.0,61,0.00,,,0.00,Wunderground v.1.15,2013-02-11 01:53:00,
2013-02-10 20:54:00,33.5,21.5,30.32,ESE,113,2.0,7.0,61,0.00,,,0.00,Wunderground v.1.15,2013-02-11 01:54:00,
2013-02-10 20:55:00,33.5,21.1,30.32,SE,137,2.0,7.0,60,0.00,,,0.00,Wunderground v.1.15,2013-02-11 01:55:00,
2013-02-10 20:59:00,33.6,21.6,30.32,SSE,153,3.0,7.0,61,0.00,,,0.00,Wunderground v.1.15,2013-02-11 01:59:00,
2013-02-10 21:00:00,33.5,21.1,30.32,ESE,114,2.0,4.0,60,0.00,,,0.00,Wunderground v.1.15,2013-02-11 02:00:00,
2013-02-10 21:01:00,33.6,21.6,30.32,SSE,152,2.0,12.0,61,0.00,,,0.00,Wunderground v.1.15,2013-02-11 02:01:00,
2013-02-10 21:04:00,33.5,21.5,30.32,SE,126,2.0,12.0,61,0.00,,,0.00,Wunderground v.1.15,2013-02-11 02:04:00,
2013-02-10 21:05:00,33.6,21.2,30.32,SE,127,3.0,12.0,60,0.00,,,0.00,Wunderground v.1.15,2013-02-11 02:05:00,
2013-02-10 21:07:00,33.6,21.2,30.32,South,190,2.0,12.0,60,0.00,,,0.00,Wunderground v.1.15,2013-02-11 02:07:00,
2013-02-10 21:09:00,33.8,21.4,30.32,SE,144,3.0,12.0,60,0.00,,,0.00,Wunderground v.1.15,2013-02-11 02:09:00,
2013-02-10 21:15:00,33.8,21.4,30.31,SSE,159,3.0,8.0,60,0.00,,,0.00,Wunderground v.1.15,2013-02-11 02:15:00,
2013-02-10 21:16:00,33.8,21.0,30.31,SSW,202,3.0,8.0,59,0.00,,,0.00,Wunderground v.1.15,2013-02-11 02:16:00,
2013-02-10 21:17:00,33.8,21.4,30.31,SSE,155,3.0,8.0,60,0.00,,,0.00,Wunderground v.1.15,2013-02-11 02:17:00,
2013-02-10 21:19:00,33.8,21.4,30.31,SSE,150,3.0,8.0,60,0.00,,,0.00,Wunderground v.1.15,2013-02-11 02:19:00,
2013-02-10 21:22:00,33.7,20.9,30.31,SE,144,3.0,4.0,59,0.00,,,0.00,Wunderground v.1.15,2013-02-11 02:22:00,
2013-02-10 21:23:00,33.7,21.3,30.31,SE,144,3.0,4.0,60,0.00,,,0.00,Wunderground v.1.15,2013-02-11 02:23:00,
2013-02-10 21:24:00,33.7,21.3,30.31,SE,144,3.0,4.0,60,0.00,,,0.00,Wunderground v.1.15,2013-02-11 02:24:00,
2013-02-10 21:27:00,33.6,21.2,30.30,SSE,167,2.0,6.0,60,0.00,,,0.00,Wunderground v.1.15,2013-02-11 02:27:00,
2013-02-10 21:28:00,33.6,21.2,30.30,ESE,111,2.0,6.0,60,0.00,,,0.00,Wunderground v.1.15,2013-02-11 02:28:00,
2013-02-10 21:29:00,33.6,21.2,30.30,SE,138,2.0,6.0,60,0.00,,,0.00,Wunderground v.1.15,2013-02-11 02:29:00,
2013-02-10 21:30:00,33.5,21.5,30.30,SSE,157,2.0,2.0,61,0.00,,,0.00,Wunderground v.1.15,2013-02-11 02:30:00,
2013-02-10 21:34:00,33.5,21.5,30.30,ESE,123,1.0,13.0,61,0.00,,,0.00,Wunderground v.1.15,2013-02-11 02:34:00,
2013-02-10 21:36:00,33.5,21.5,30.30,SSW,203,1.0,13.0,61,0.00,,,0.00,Wunderground v.1.15,2013-02-11 02:36:00,
2013-02-10 21:39:00,33.7,21.3,30.30,SSE,162,2.0,13.0,60,0.00,,,0.00,Wunderground v.1.15,2013-02-11 02:39:00,
2013-02-10 21:42:00,33.9,21.5,30.29,SSE,167,3.0,7.0,60,0.00,,,0.00,Wunderground v.1.15,2013-02-11 02:42:00,
2013-02-10 21:44:00,33.9,21.5,30.30,SE,136,3.0,7.0,60,0.00,,,0.00,Wunderground v.1.15,2013-02-11 02:44:00,
2013-02-10 21:47:00,33.9,21.5,30.30,SE,124,3.0,7.0,60,0.00,,,0.00,Wunderground v.1.15,2013-02-11 02:47:00,
2013-02-10 21:48:00,33.9,21.5,30.30,SE,130,3.0,7.0,60,0.00,,,0.00,Wunderground v.1.15,2013-02-11 02:48:00,
2013-02-10 21:50:00,33.9,21.5,30.30,SE,125,3.0,6.0,60,0.00,,,0.00,Wunderground v.1.15,2013-02-11 02:50:00,
2013-02-10 21:53:00,33.9,21.5,30.29,South,178,2.0,6.0,60,0.00,,,0.00,Wunderground v.1.15,2013-02-11 02:53:00,
2013-02-10 21:55:00,33.9,21.5,30.29,SE,137,2.0,6.0,60,0.00,,,0.00,Wunderground v.1.15,2013-02-11 02:55:00,
2013-02-10 21:56:00,33.8,21.4,30.29,South,178,2.0,6.0,60,0.00,,,0.00,Wunderground v.1.15,2013-02-11 02:56:00,
2013-02-10 22:01:00,33.7,21.7,30.29,South,171,2.0,8.0,61,0.00,,,0.00,Wunderground v.1.15,2013-02-11 03:01:00,
2013-02-10 22:05:00,33.8,21.8,30.29,SSE,160,2.0,13.0,61,0.00,,,0.00,Wunderground v.1.15,2013-02-11 03:05:00,
2013-02-10 22:06:00,33.9,21.5,30.29,SE,144,2.0,13.0,60,0.00,,,0.00,Wunderground v.1.15,2013-02-11 03:06:00,
2013-02-10 22:11:00,34.1,21.7,30.29,ESE,111,2.0,6.0,60,0.00,,,0.00,Wunderground v.1.15,2013-02-11 03:11:00,
2013-02-10 22:12:00,34.1,21.7,30.29,ESE,116,2.0,6.0,60,0.00,,,0.00,Wunderground v.1.15,2013-02-11 03:12:00,
2013-02-10 22:16:00,34.1,21.7,30.30,ESE,121,1.0,6.0,60,0.00,,,0.00,Wunderground v.1.15,2013-02-11 03:16:00,
2013-02-10 22:19:00,34.0,21.6,30.30,SE,134,1.0,8.0,60,0.00,,,0.00,Wunderground v.1.15,2013-02-11 03:19:00,
2013-02-10 22:21:00,33.9,21.5,30.29,SE,134,1.0,1.0,60,0.00,,,0.00,Wunderground v.1.15,2013-02-11 03:21:00,
2013-02-10 22:23:00,33.9,21.5,30.29,SW,223,1.0,5.0,60,0.00,,,0.00,Wunderground v.1.15,2013-02-11 03:23:00,
2013-02-10 22:26:00,33.9,21.5,30.29,East,82,1.0,5.0,60,0.00,,,0.00,Wunderground v.1.15,2013-02-11 03:26:00,
2013-02-10 22:28:00,34.1,21.7,30.29,South,173,1.0,5.0,60,0.00,,,0.00,Wunderground v.1.15,2013-02-11 03:28:00,
2013-02-10 22:29:00,34.1,21.7,30.29,South,175,1.0,5.0,60,0.00,,,0.00,Wunderground v.1.15,2013-02-11 03:29:00,
2013-02-10 22:31:00,34.2,21.7,30.29,South,175,1.0,12.0,60,0.00,,,0.00,Wunderground v.1.15,2013-02-11 03:31:00,
2013-02-10 22:33:00,34.3,22.2,30.29,SSE,159,1.0,12.0,61,0.00,,,0.00,Wunderground v.1.15,2013-02-11 03:33:00,
2013-02-10 22:34:00,34.3,22.2,30.29,SSE,159,1.0,12.0,61,0.00,,,0.00,Wunderground v.1.15,2013-02-11 03:34:00,
2013-02-10 22:39:00,34.4,21.9,30.29,SE,128,1.0,12.0,60,0.00,,,0.00,Wunderground v.1.15,2013-02-11 03:39:00,
2013-02-10 22:40:00,34.4,21.9,30.29,SSE,167,1.0,5.0,60,0.00,,,0.00,Wunderground v.1.15,2013-02-11 03:40:00,
2013-02-10 22:41:00,34.4,21.9,30.29,SE,142,1.0,5.0,60,0.00,,,0.00,Wunderground v.1.15,2013-02-11 03:41:00,
2013-02-10 22:44:00,34.4,21.9,30.28,South,176,1.0,5.0,60,0.00,,,0.00,Wunderground v.1.15,2013-02-11 03:44:00,
2013-02-10 22:50:00,34.4,21.9,30.28,SSW,207,1.0,1.0,60,0.00,,,0.00,Wunderground v.1.15,2013-02-11 03:50:00,
2013-02-10 22:52:00,34.4,21.9,30.28,SSW,197,1.0,1.0,60,0.00,,,0.00,Wunderground v.1.15,2013-02-11 03:52:00,
2013-02-10 22:55:00,34.4,22.3,30.28,SSE,149,0.0,1.0,61,0.00,,,0.00,Wunderground v.1.15,2013-02-11 03:55:00,
2013-02-10 22:57:00,34.4,22.3,30.28,SSE,165,0.0,1.0,61,0.00,,,0.00,Wunderground v.1.15,2013-02-11 03:57:00,
2013-02-10 22:58:00,34.4,22.3,30.27,SSE,165,0.0,1.0,61,0.00,,,0.00,Wunderground v.1.15,2013-02-11 03:58:00,
2013-02-10 23:03:00,34.2,22.1,30.27,SE,138,1.0,13.0,61,0.00,,,0.00,Wunderground v.1.15,2013-02-11 04:03:00,
2013-02-10 23:04:00,34.2,22.1,30.27,ESE,119,1.0,13.0,61,0.00,,,0.00,Wunderground v.1.15,2013-02-11 04:04:00,
2013-02-10 23:05:00,34.2,22.1,30.27,SE,128,1.0,13.0,61,0.00,,,0.00,Wunderground v.1.15,2013-02-11 04:05:00,
2013-02-10 23:06:00,34.1,22.0,30.27,SE,146,1.0,13.0,61,0.00,,,0.00,Wunderground v.1.15,2013-02-11 04:06:00,
2013-02-10 23:09:00,33.9,22.2,30.27,SE,143,1.0,13.0,62,0.00,,,0.00,Wunderground v.1.15,2013-02-11 04:09:00,
2013-02-10 23:11:00,33.8,22.1,30.26,SE,143,1.0,2.0,62,0.00,,,0.00,Wunderground v.1.15,2013-02-11 04:11:00,
2013-02-10 23:14:00,33.8,22.5,30.26,SE,138,1.0,4.0,63,0.00,,,0.00,Wunderground v.1.15,2013-02-11 04:14:00,
2013-02-10 23:16:00,33.8,22.1,30.26,SE,136,1.0,7.0,62,0.00,,,0.00,Wunderground v.1.15,2013-02-11 04:16:00,
2013-02-10 23:18:00,33.9,22.2,30.26,ESE,123,1.0,8.0,62,0.00,,,0.00,Wunderground v.1.15,2013-02-11 04:18:00,
2013-02-10 23:19:00,33.9,22.2,30.26,ESE,110,1.0,9.0,62,0.00,,,0.00,Wunderground v.1.15,2013-02-11 04:19:00,
2013-02-10 23:21:00,33.9,22.2,30.26,ESE,118,2.0,2.0,62,0.00,,,0.00,Wunderground v.1.15,2013-02-11 04:21:00,
2013-02-10 23:22:00,33.9,22.2,30.26,SE,132,2.0,2.0,62,0.00,,,0.00,Wunderground v.1.15,2013-02-11 04:22:00,
2013-02-10 23:24:00,33.9,22.2,30.26,East,96,2.0,2.0,62,0.00,,,0.00,Wunderground v.1.15,2013-02-11 04:24:00,
2013-02-10 23:26:00,33.8,22.1,30.26,SE,126,2.0,5.0,62,0.00,,,0.00,Wunderground v.1.15,2013-02-11 04:26:00,
2013-02-10 23:27:00,33.9,22.6,30.26,SE,129,2.0,5.0,63,0.00,,,0.00,Wunderground v.1.15,2013-02-11 04:27:00,
2013-02-10 23:31:00,33.8,22.5,30.25,SSE,152,1.0,9.0,63,0.00,,,0.00,Wunderground v.1.15,2013-02-11 04:31:00,
2013-02-10 23:33:00,33.9,23.0,30.25,South,172,0.0,9.0,64,0.00,,,0.00,Wunderground v.1.15,2013-02-11 04:33:00,
2013-02-10 23:35:00,34.0,22.7,30.25,East,98,1.0,9.0,63,0.00,,,0.00,Wunderground v.1.15,2013-02-11 04:35:00,
2013-02-10 23:39:00,34.1,22.8,30.25,SE,142,2.0,9.0,63,0.00,,,0.00,Wunderground v.1.15,2013-02-11 04:39:00,
2013-02-10 23:42:00,34.0,22.7,30.25,South,172,1.0,2.0,63,0.00,,,0.00,Wunderground v.1.15,2013-02-11 04:42:00,
2013-02-10 23:43:00,34.0,22.7,30.25,WSW,240,2.0,2.0,63,0.00,,,0.00,Wunderground v.1.15,2013-02-11 04:43:00,
2013-02-10 23:45:00,34.0,22.7,30.25,SSE,149,1.0,4.0,63,0.00,,,0.00,Wunderground v.1.15,2013-02-11 04:45:00,
2013-02-10 23:48:00,34.0,23.1,30.25,SSE,160,1.0,4.0,64,0.00,,,0.00,Wunderground v.1.15,2013-02-11 04:48:00,
2013-02-10 23:51:00,34.0,22.7,30.25,SE,140,2.0,2.0,63,0.00,,,0.00,Wunderground v.1.15,2013-02-11 04:51:00,
2013-02-10 23:52:00,34.0,23.1,30.25,SSE,153,2.0,2.0,64,0.00,,,0.00,Wunderground v.1.15,2013-02-11 04:52:00,
2013-02-10 23:56:00,34.0,22.7,30.25,South,183,1.0,2.0,63,0.00,,,0.00,Wunderground v.1.15,2013-02-11 04:56:00,
2013-02-10 23:58:00,34.0,22.7,30.25,ESE,123,1.0,4.0,63,0.00,,,0.00,Wunderground v.1.15,2013-02-11 04:58:00,